Time,TemperatureF,DewpointF,PressureIn,WindDirection,WindDirectionDegrees,WindSpeedMPH,WindSpeedGustMPH,Humidity,HourlyPrecipIn,Conditions,Clouds,dailyrainin,SoftwareType,DateUTC
2013-05-10 00:00:00,59.8,56.6,29.84,SSW,210,0.0,1.0,89,0.00,,,0.95,VWS V14.01,2013-05-10 05:00:00,
2013-05-10 00:02:00,59.8,56.2,29.84,SSW,210,0.0,0.0,88,0.00,,CLR,0.00,VWS V14.01,2013-05-10 05:02:00,
2013-05-10 00:03:00,59.8,56.2,29.84,SSW,210,0.0,0.0,88,0.00,,CLR,0.00,VWS V14.01,2013-05-10 05:03:00,
2013-05-10 00:07:00,60.0,56.4,29.84,SSW,202,0.0,3.0,88,0.00,,CLR,0.00,VWS V14.01,2013-05-10 05:07:00,
2013-05-10 00:08:00,60.0,56.4,29.84,SSW,202,0.0,3.0,88,0.00,,CLR,0.00,VWS V14.01,2013-05-10 05:08:00,
2013-05-10 00:12:00,60.0,56.4,29.84,SSW,194,0.0,3.0,88,0.00,,CLR,0.00,VWS V14.01,2013-05-10 05:12:00,
2013-05-10 00:13:00,60.1,56.5,29.84,SSW,194,0.0,3.0,88,0.00,,CLR,0.00,VWS V14.01,2013-05-10 05:13:00,
2013-05-10 00:17:00,60.1,56.5,29.83,SSW,195,0.0,3.0,88,0.00,,CLR,0.00,VWS V14.01,2013-05-10 05:17:00,
2013-05-10 00:18:00,60.1,56.5,29.83,SSW,195,0.0,3.0,88,0.00,,CLR,0.00,VWS V14.01,2013-05-10 05:18:00,
2013-05-10 00:23:00,60.0,56.4,29.83,SSW,195,0.0,3.0,88,0.00,,CLR,0.00,VWS V14.01,2013-05-10 05:23:00,
2013-05-10 00:28:00,60.0,56.4,29.83,SSW,195,0.0,3.0,88,0.00,,CLR,0.00,VWS V14.01,2013-05-10 05:28:00,
2013-05-10 00:29:00,60.0,56.4,29.83,SSW,195,0.0,3.0,88,0.00,,CLR,0.00,VWS V14.01,2013-05-10 05:29:00,
2013-05-10 00:30:00,60.0,56.4,29.82,SSW,195,0.0,3.0,88,0.00,,,0.00,VWS V14.01,2013-05-10 05:30:00,
2013-05-10 00:33:00,60.0,56.4,29.82,SSW,195,0.0,0.0,88,0.00,,CLR,0.00,VWS V14.01,2013-05-10 05:33:00,
2013-05-10 00:34:00,59.8,56.2,29.82,SSW,195,0.0,0.0,88,0.00,,CLR,0.00,VWS V14.01,2013-05-10 05:34:00,
2013-05-10 00:35:00,59.8,56.2,29.82,SSW,194,0.0,0.0,88,0.00,,CLR,0.00,VWS V14.01,2013-05-10 05:35:00,
2013-05-10 00:38:00,59.8,56.2,29.82,SSW,194,0.0,0.0,88,0.00,,CLR,0.00,VWS V14.01,2013-05-10 05:38:00,
2013-05-10 00:39:00,59.8,56.2,29.82,SSW,194,0.0,0.0,88,0.00,,CLR,0.00,VWS V14.01,2013-05-10 05:39:00,
2013-05-10 00:40:00,59.8,56.2,29.82,SSW,194,0.0,0.0,88,0.00,,CLR,0.00,VWS V14.01,2013-05-10 05:40:00,
2013-05-10 00:43:00,59.8,56.2,29.82,SSW,194,0.0,0.0,88,0.00,,CLR,0.00,VWS V14.01,2013-05-10 05:43:00,
2013-05-10 00:44:00,59.8,56.2,29.82,SSW,194,0.0,0.0,88,0.00,,CLR,0.00,VWS V14.01,2013-05-10 05:44:00,
2013-05-10 00:45:00,59.8,56.2,29.82,SSW,194,0.0,0.0,88,0.00,,CLR,0.00,VWS V14.01,2013-05-10 05:45:00,
2013-05-10 00:48:00,59.8,56.2,29.82,SSW,194,0.0,0.0,88,0.00,,CLR,0.00,VWS V14.01,2013-05-10 05:48:00,
2013-05-10 00:49:00,59.8,56.2,29.82,SSW,194,0.0,0.0,88,0.00,,CLR,0.00,VWS V14.01,2013-05-10 05:49:00,
2013-05-10 00:51:00,59.7,56.2,29.82,SSW,194,0.0,0.0,88,0.00,,CLR,0.00,VWS V14.01,2013-05-10 05:51:00,
2013-05-10 00:53:00,59.7,56.2,29.82,SSW,194,0.0,0.0,88,0.00,,CLR,0.00,VWS V14.01,2013-05-10 05:53:00,
2013-05-10 00:54:00,59.7,56.2,29.82,SSW,194,0.0,0.0,88,0.00,,CLR,0.00,VWS V14.01,2013-05-10 05:54:00,
2013-05-10 00:56:00,59.7,56.2,29.82,SSW,194,0.0,0.0,88,0.00,,CLR,0.00,VWS V14.01,2013-05-10 05:56:00,
2013-05-10 00:58:00,59.7,56.2,29.82,SSW,194,0.0,0.0,88,0.00,,CLR,0.00,VWS V14.01,2013-05-10 05:58:00,
2013-05-10 00:59:00,59.7,56.5,29.82,SSW,194,0.0,0.0,89,0.00,,CLR,0.00,VWS V14.01,2013-05-10 05:59:00,
2013-05-10 01:00:00,59.5,56.0,29.81,SSW,195,0.0,0.0,88,0.00,,,0.00,VWS V14.01,2013-05-10 06:00:00,
2013-05-10 01:01:00,59.5,56.0,29.81,SSW,195,0.0,0.0,88,0.00,,CLR,0.00,VWS V14.01,2013-05-10 06:01:00,
2013-05-10 01:04:00,59.4,56.2,29.81,SSW,195,0.0,0.0,89,0.00,,CLR,0.00,VWS V14.01,2013-05-10 06:04:00,
2013-05-10 01:06:00,59.2,56.0,29.81,SSW,195,0.0,0.0,89,0.00,,CLR,0.00,VWS V14.01,2013-05-10 06:06:00,
2013-05-10 01:09:00,59.2,56.0,29.81,SSW,195,0.0,0.0,89,0.00,,CLR,0.00,VWS V14.01,2013-05-10 06:09:00,
2013-05-10 01:11:00,59.2,56.0,29.81,SSW,195,0.0,0.0,89,0.00,,CLR,0.00,VWS V14.01,2013-05-10 06:11:00,
2013-05-10 01:14:00,59.1,56.2,29.81,SSW,195,0.0,0.0,90,0.00,,CLR,0.00,VWS V14.01,2013-05-10 06:14:00,
2013-05-10 01:15:00,59.1,56.2,29.81,SSW,195,0.0,0.0,90,0.00,,CLR,0.00,VWS V14.01,2013-05-10 06:15:00,
2013-05-10 01:16:00,59.1,56.2,29.81,SSW,195,0.0,0.0,90,0.00,,CLR,0.00,VWS V14.01,2013-05-10 06:16:00,
2013-05-10 01:19:00,59.1,56.2,29.81,SSW,195,0.0,0.0,90,0.00,,CLR,0.00,VWS V14.01,2013-05-10 06:19:00,
2013-05-10 01:20:00,58.9,56.0,29.81,SSW,195,0.0,0.0,90,0.00,,CLR,0.00,VWS V14.01,2013-05-10 06:20:00,
2013-05-10 01:21:00,58.9,56.0,29.81,SSW,195,0.0,0.0,90,0.00,,CLR,0.00,VWS V14.01,2013-05-10 06:21:00,
2013-05-10 01:24:00,58.9,56.0,29.81,SSW,195,0.0,0.0,90,0.00,,CLR,0.00,VWS V14.01,2013-05-10 06:24:00,
2013-05-10 01:25:00,58.9,56.0,29.81,SSW,195,0.0,0.0,90,0.00,,CLR,0.00,VWS V14.01,2013-05-10 06:25:00,
2013-05-10 01:26:00,58.9,56.0,29.81,SSW,195,0.0,0.0,90,0.00,,CLR,0.00,VWS V14.01,2013-05-10 06:26:00,
2013-05-10 01:30:00,58.9,56.3,29.81,SSW,195,0.0,0.0,91,0.00,,CLR,0.00,VWS V14.01,2013-05-10 06:30:00,
2013-05-10 01:31:00,58.9,56.3,29.81,SSW,195,0.0,0.0,91,0.00,,CLR,0.00,VWS V14.01,2013-05-10 06:31:00,
2013-05-10 01:35:00,59.1,56.5,29.81,SSW,195,0.0,0.0,91,0.00,,CLR,0.00,VWS V14.01,2013-05-10 06:35:00,
2013-05-10 01:37:00,59.1,56.5,29.81,SSW,195,0.0,0.0,91,0.00,,CLR,0.00,VWS V14.01,2013-05-10 06:37:00,
2013-05-10 01:40:00,59.2,56.6,29.81,SSW,195,0.0,0.0,91,0.00,,CLR,0.00,VWS V14.01,2013-05-10 06:40:00,
2013-05-10 01:41:00,59.2,56.6,29.81,SSW,195,0.0,0.0,91,0.00,,CLR,0.00,VWS V14.01,2013-05-10 06:41:00,
2013-05-10 01:42:00,59.2,56.6,29.81,SSW,195,0.0,0.0,91,0.00,,CLR,0.00,VWS V14.01,2013-05-10 06:42:00,
2013-05-10 01:45:00,59.4,56.8,29.81,SSW,194,0.0,0.0,91,0.00,,CLR,0.00,VWS V14.01,2013-05-10 06:45:00,
2013-05-10 01:46:00,59.4,56.8,29.81,SSW,194,0.0,0.0,91,0.00,,CLR,0.00,VWS V14.01,2013-05-10 06:46:00,
2013-05-10 01:48:00,59.4,56.8,29.81,SSW,194,0.0,0.0,91,0.00,,CLR,0.00,VWS V14.01,2013-05-10 06:48:00,
2013-05-10 01:50:00,59.5,56.9,29.81,SSW,194,0.0,0.0,91,0.00,,CLR,0.00,VWS V14.01,2013-05-10 06:50:00,
2013-05-10 01:51:00,59.5,56.9,29.81,SSW,195,0.0,0.0,91,0.00,,CLR,0.00,VWS V14.01,2013-05-10 06:51:00,
2013-05-10 01:53:00,59.5,56.9,29.81,SSW,195,0.0,0.0,91,0.00,,CLR,0.00,VWS V14.01,2013-05-10 06:53:00,
2013-05-10 01:55:00,59.5,56.9,29.81,SSW,194,0.0,0.0,91,0.00,,CLR,0.00,VWS V14.01,2013-05-10 06:55:00,
2013-05-10 01:56:00,59.5,56.9,29.81,SSW,195,0.0,0.0,91,0.00,,CLR,0.00,VWS V14.01,2013-05-10 06:56:00,
2013-05-10 01:58:00,59.5,56.9,29.81,SSW,195,0.0,0.0,91,0.00,,CLR,0.00,VWS V14.01,2013-05-10 06:58:00,
2013-05-10 02:00:00,59.7,57.1,29.80,SSW,195,0.0,0.0,91,0.00,,CLR,0.00,VWS V14.01,2013-05-10 07:00:00,
2013-05-10 02:01:00,59.7,57.1,29.80,SSW,194,0.0,0.0,91,0.00,,CLR,0.00,VWS V14.01,2013-05-10 07:01:00,
2013-05-10 02:03:00,59.7,57.1,29.80,SSW,195,0.0,0.0,91,0.00,,CLR,0.00,VWS V14.01,2013-05-10 07:03:00,
2013-05-10 02:05:00,59.7,57.1,29.80,SSW,194,0.0,0.0,91,0.00,,CLR,0.00,VWS V14.01,2013-05-10 07:05:00,
2013-05-10 02:06:00,59.7,57.1,29.80,SSW,195,0.0,0.0,91,0.00,,CLR,0.00,VWS V14.01,2013-05-10 07:06:00,
2013-05-10 02:08:00,59.7,57.1,29.80,SSW,195,0.0,0.0,91,0.00,,CLR,0.00,VWS V14.01,2013-05-10 07:08:00,
2013-05-10 02:10:00,59.7,57.1,29.80,SSW,195,0.0,0.0,91,0.00,,CLR,0.00,VWS V14.01,2013-05-10 07:10:00,
2013-05-10 02:11:00,59.7,57.1,29.80,SSW,195,0.0,0.0,91,0.00,,CLR,0.00,VWS V14.01,2013-05-10 07:11:00,
2013-05-10 02:12:00,59.8,57.2,29.80,SSW,195,0.0,0.0,91,0.00,,CLR,0.00,VWS V14.01,2013-05-10 07:12:00,
2013-05-10 02:13:00,59.8,57.2,29.80,SSW,195,0.0,0.0,91,0.00,,CLR,0.00,VWS V14.01,2013-05-10 07:13:00,
2013-05-10 02:15:00,59.8,57.2,29.80,SSW,195,0.0,0.0,91,0.00,,CLR,0.00,VWS V14.01,2013-05-10 07:15:00,
2013-05-10 02:16:00,59.8,57.2,29.80,SSW,195,0.0,0.0,91,0.00,,CLR,0.00,VWS V14.01,2013-05-10 07:16:00,
2013-05-10 02:17:00,59.8,57.2,29.80,SSW,195,0.0,0.0,91,0.00,,CLR,0.00,VWS V14.01,2013-05-10 07:17:00,
2013-05-10 02:18:00,59.8,57.2,29.80,SSW,195,0.0,0.0,91,0.00,,CLR,0.00,VWS V14.01,2013-05-10 07:18:00,
2013-05-10 02:21:00,59.8,57.2,29.80,SSW,195,0.0,0.0,91,0.00,,CLR,0.00,VWS V14.01,2013-05-10 07:21:00,
2013-05-10 02:22:00,59.8,57.2,29.80,SSW,195,0.0,0.0,91,0.00,,CLR,0.00,VWS V14.01,2013-05-10 07:22:00,
2013-05-10 02:24:00,59.8,57.2,29.80,SSW,195,0.0,0.0,91,0.00,,CLR,0.00,VWS V14.01,2013-05-10 07:24:00,
2013-05-10 02:26:00,60.0,57.1,29.80,SSW,195,0.0,0.0,90,0.00,,CLR,0.00,VWS V14.01,2013-05-10 07:26:00,
2013-05-10 02:27:00,59.8,56.9,29.80,SSW,195,0.0,0.0,90,0.00,,CLR,0.00,VWS V14.01,2013-05-10 07:27:00,
2013-05-10 02:29:00,60.0,57.1,29.80,SSW,195,0.0,0.0,90,0.00,,CLR,0.00,VWS V14.01,2013-05-10 07:29:00,
2013-05-10 02:30:00,60.0,57.1,29.79,SSW,195,0.0,0.0,90,0.00,,,0.00,VWS V14.01,2013-05-10 07:30:00,
2013-05-10 02:31:00,60.0,57.1,29.79,SSW,195,0.0,0.0,90,0.00,,CLR,0.00,VWS V14.01,2013-05-10 07:31:00,
2013-05-10 02:32:00,60.0,57.1,29.79,SSW,195,0.0,0.0,90,0.00,,CLR,0.00,VWS V14.01,2013-05-10 07:32:00,
2013-05-10 02:34:00,60.0,57.1,29.79,SSW,195,0.0,0.0,90,0.00,,CLR,0.00,VWS V14.01,2013-05-10 07:34:00,
2013-05-10 02:36:00,60.0,57.1,29.79,SSW,195,0.0,0.0,90,0.00,,CLR,0.00,VWS V14.01,2013-05-10 07:36:00,
2013-05-10 02:37:00,60.0,57.1,29.79,SSW,195,0.0,0.0,90,0.00,,CLR,0.00,VWS V14.01,2013-05-10 07:37:00,
2013-05-10 02:39:00,60.1,57.2,29.79,SSW,195,0.0,0.0,90,0.00,,CLR,0.00,VWS V14.01,2013-05-10 07:39:00,
2013-05-10 02:41:00,60.1,57.2,29.79,SSW,195,0.0,0.0,90,0.00,,CLR,0.00,VWS V14.01,2013-05-10 07:41:00,
2013-05-10 02:42:00,60.1,57.2,29.79,SSW,195,0.0,0.0,90,0.00,,CLR,0.00,VWS V14.01,2013-05-10 07:42:00,
2013-05-10 02:44:00,60.1,57.2,29.79,SSW,195,0.0,0.0,90,0.00,,CLR,0.00,VWS V14.01,2013-05-10 07:44:00,
2013-05-10 02:46:00,60.1,57.2,29.79,SSW,195,0.0,0.0,90,0.00,,BKN055,0.00,VWS V14.01,2013-05-10 07:46:00,
2013-05-10 02:47:00,60.1,57.2,29.79,SSW,195,0.0,0.0,90,0.00,,BKN055,0.00,VWS V14.01,2013-05-10 07:47:00,
2013-05-10 02:49:00,60.1,57.2,29.79,SSW,195,0.0,0.0,90,0.00,,BKN055,0.00,VWS V14.01,2013-05-10 07:49:00,
2013-05-10 02:52:00,60.3,57.4,29.79,SSW,195,0.0,0.0,90,0.00,,BKN055,0.00,VWS V14.01,2013-05-10 07:52:00,
2013-05-10 02:54:00,60.3,57.4,29.79,SSW,195,0.0,0.0,90,0.00,,BKN055,0.00,VWS V14.01,2013-05-10 07:54:00,
2013-05-10 02:57:00,60.3,57.4,29.79,SSW,195,0.0,0.0,90,0.00,,BKN055,0.00,VWS V14.01,2013-05-10 07:57:00,
2013-05-10 03:00:00,60.3,57.4,29.79,SSW,195,0.0,0.0,90,0.00,,BKN055,0.00,VWS V14.01,2013-05-10 08:00:00,
2013-05-10 03:02:00,60.3,57.4,29.79,SSW,195,0.0,0.0,90,0.00,,BKN055,0.00,VWS V14.01,2013-05-10 08:02:00,
2013-05-10 03:03:00,60.4,57.5,29.79,SSW,195,0.0,0.0,90,0.00,,BKN055,0.00,VWS V14.01,2013-05-10 08:03:00,
2013-05-10 03:05:00,60.4,57.5,29.79,SSW,195,0.0,0.0,90,0.00,,BKN055,0.00,VWS V14.01,2013-05-10 08:05:00,
2013-05-10 03:07:00,60.4,57.5,29.79,SSW,195,0.0,0.0,90,0.00,,BKN055,0.00,VWS V14.01,2013-05-10 08:07:00,
2013-05-10 03:08:00,60.4,57.2,29.79,SSW,195,0.0,0.0,89,0.00,,BKN055,0.00,VWS V14.01,2013-05-10 08:08:00,
2013-05-10 03:10:00,60.4,57.2,29.79,SSW,195,0.0,0.0,89,0.00,,BKN055,0.00,VWS V14.01,2013-05-10 08:10:00,
2013-05-10 03:12:00,60.4,57.2,29.79,SSW,195,0.0,0.0,89,0.00,,BKN055,0.00,VWS V14.01,2013-05-10 08:12:00,
2013-05-10 03:13:00,60.4,57.2,29.79,SSW,195,0.0,0.0,89,0.00,,BKN055,0.00,VWS V14.01,2013-05-10 08:13:00,
2013-05-10 03:15:00,60.4,57.2,29.77,SSW,195,0.0,0.0,89,0.00,,CLR,0.00,VWS V14.01,2013-05-10 08:15:00,
2013-05-10 03:17:00,60.4,57.2,29.77,SSW,195,0.0,0.0,89,0.00,,CLR,0.00,VWS V14.01,2013-05-10 08:17:00,
2013-05-10 03:18:00,60.4,57.2,29.77,SSW,195,0.0,0.0,89,0.00,,CLR,0.00,VWS V14.01,2013-05-10 08:18:00,
2013-05-10 03:20:00,60.4,57.2,29.77,SSW,195,0.0,0.0,89,0.00,,CLR,0.00,VWS V14.01,2013-05-10 08:20:00,
2013-05-10 03:22:00,60.4,57.2,29.77,SSW,195,0.0,0.0,89,0.00,,CLR,0.00,VWS V14.01,2013-05-10 08:22:00,
2013-05-10 03:23:00,60.4,57.2,29.77,SSW,195,0.0,0.0,89,0.00,,CLR,0.00,VWS V14.01,2013-05-10 08:23:00,
2013-05-10 03:25:00,60.4,57.2,29.77,SSW,195,0.0,0.0,89,0.00,,CLR,0.00,VWS V14.01,2013-05-10 08:25:00,
2013-05-10 03:28:00,60.4,57.2,29.77,SSW,195,0.0,0.0,89,0.00,,CLR,0.00,VWS V14.01,2013-05-10 08:28:00,
2013-05-10 03:30:00,60.3,57.0,29.77,SSW,195,0.0,0.0,89,0.00,,CLR,0.00,VWS V14.01,2013-05-10 08:30:00,
2013-05-10 03:33:00,60.1,56.8,29.77,SSW,195,0.0,0.0,89,0.00,,CLR,0.00,VWS V14.01,2013-05-10 08:33:00,
2013-05-10 03:34:00,60.1,57.2,29.77,SSW,195,0.0,0.0,90,0.00,,CLR,0.00,VWS V14.01,2013-05-10 08:34:00,
2013-05-10 03:35:00,60.1,57.2,29.77,SSW,195,0.0,0.0,90,0.00,,CLR,0.00,VWS V14.01,2013-05-10 08:35:00,
2013-05-10 03:38:00,60.0,57.1,29.77,SSW,195,0.0,0.0,90,0.00,,CLR,0.00,VWS V14.01,2013-05-10 08:38:00,
2013-05-10 03:39:00,60.0,57.1,29.77,SSW,195,0.0,0.0,90,0.00,,CLR,0.00,VWS V14.01,2013-05-10 08:39:00,
2013-05-10 03:41:00,59.8,56.9,29.77,SSW,195,0.0,0.0,90,0.00,,CLR,0.00,VWS V14.01,2013-05-10 08:41:00,
2013-05-10 04:00:00,59.8,57.2,29.77,North,0,0.0,0.0,91,0.00,,,0.00,VWS V14.01,2013-05-10 09:00:00,
2013-05-10 04:30:00,59.9,57.3,29.77,North,0,0.0,0.0,91,0.00,,,0.00,VWS V14.01,2013-05-10 09:30:00,
2013-05-10 05:00:00,59.4,56.8,29.78,North,0,0.0,0.0,91,0.00,,,0.00,VWS V14.01,2013-05-10 10:00:00,
2013-05-10 05:30:00,59.2,56.9,29.79,North,0,0.0,0.0,92,0.00,,,0.00,VWS V14.01,2013-05-10 10:30:00,
2013-05-10 06:00:00,59.1,56.8,29.78,North,0,0.0,0.0,92,0.00,,,0.00,VWS V14.01,2013-05-10 11:00:00,
2013-05-10 06:30:00,59.2,57.2,29.80,North,0,0.0,0.0,93,0.00,,,0.00,VWS V14.01,2013-05-10 11:30:00,
2013-05-10 07:00:00,59.5,57.5,29.80,North,0,0.0,0.0,93,0.00,,,0.00,VWS V14.01,2013-05-10 12:00:00,
2013-05-10 07:30:00,60.0,58.0,29.80,North,0,0.0,0.0,93,0.00,,,0.00,VWS V14.01,2013-05-10 12:30:00,
2013-05-10 08:00:00,59.5,57.5,29.80,North,0,0.0,0.0,93,0.00,,OVC014,0.00,VWS V14.01,2013-05-10 13:00:00,
2013-05-10 08:22:00,60.0,58.0,29.80,North,0,0.0,0.0,93,0.00,,,0.00,VWS V14.01,2013-05-10 13:22:00,
2013-05-10 08:27:00,63.4,58.5,29.80,NW,309,0.0,0.0,84,0.00,,,0.00,VWS V14.01,2013-05-10 13:27:00,
2013-05-10 08:28:00,63.4,58.5,29.80,NW,315,0.0,0.0,84,0.00,,,0.00,VWS V14.01,2013-05-10 13:28:00,
2013-05-10 08:30:00,63.6,58.7,29.80,NW,324,3.0,3.0,84,0.00,,,0.00,VWS V14.01,2013-05-10 13:30:00,
2013-05-10 08:32:00,63.6,58.3,29.80,NW,305,0.0,3.0,83,0.00,,BKN110,0.00,VWS V14.01,2013-05-10 13:32:00,
2013-05-10 08:33:00,63.6,58.3,29.80,NW,313,0.0,3.0,83,0.00,,BKN110,0.00,VWS V14.01,2013-05-10 13:33:00,
2013-05-10 08:37:00,63.9,59.0,29.80,NW,317,0.0,5.0,84,0.00,,BKN110,0.00,VWS V14.01,2013-05-10 13:37:00,
2013-05-10 08:38:00,63.9,59.0,29.80,West,267,0.0,5.0,84,0.00,,BKN110,0.00,VWS V14.01,2013-05-10 13:38:00,
2013-05-10 08:42:00,63.6,58.3,29.80,NW,315,0.0,5.0,83,0.00,,BKN110,0.00,VWS V14.01,2013-05-10 13:42:00,
2013-05-10 08:43:00,63.6,58.3,29.80,NW,315,0.0,5.0,83,0.00,,BKN110,0.00,VWS V14.01,2013-05-10 13:43:00,
2013-05-10 08:48:00,63.6,58.7,29.82,NW,307,0.0,5.0,84,0.00,,BKN110,0.00,VWS V14.01,2013-05-10 13:48:00,
2013-05-10 08:49:00,63.6,58.7,29.82,NW,307,0.0,5.0,84,0.00,,BKN110,0.00,VWS V14.01,2013-05-10 13:49:00,
2013-05-10 08:53:00,63.6,58.7,29.82,NW,321,3.0,5.0,84,0.00,,BKN110,0.00,VWS V14.01,2013-05-10 13:53:00,
2013-05-10 08:54:00,63.6,58.7,29.82,NW,304,0.0,5.0,84,0.00,,BKN110,0.00,VWS V14.01,2013-05-10 13:54:00,
2013-05-10 08:58:00,63.4,58.5,29.82,WNW,284,1.0,7.0,84,0.00,,BKN110,0.00,VWS V14.01,2013-05-10 13:58:00,
2013-05-10 08:59:00,63.3,58.4,29.82,NW,306,0.0,7.0,84,0.00,,BKN110,0.00,VWS V14.01,2013-05-10 13:59:00,
2013-05-10 09:00:00,63.3,58.4,29.82,NW,306,0.0,7.0,84,0.00,,,0.00,VWS V14.01,2013-05-10 14:00:00,
2013-05-10 09:03:00,63.4,58.5,29.82,NW,322,6.0,6.0,84,0.00,,OVC007,0.00,VWS V14.01,2013-05-10 14:03:00,
2013-05-10 09:04:00,63.6,58.7,29.82,NW,305,0.0,7.0,84,0.00,,OVC007,0.00,VWS V14.01,2013-05-10 14:04:00,
2013-05-10 09:08:00,63.6,58.7,29.82,NW,317,0.0,7.0,84,0.00,,OVC007,0.00,VWS V14.01,2013-05-10 14:08:00,
2013-05-10 09:09:00,63.6,58.7,29.82,NW,317,0.0,7.0,84,0.00,,OVC007,0.00,VWS V14.01,2013-05-10 14:09:00,
2013-05-10 09:13:00,63.8,58.5,29.82,WNW,289,3.0,9.0,83,0.00,,OVC007,0.00,VWS V14.01,2013-05-10 14:13:00,
2013-05-10 09:14:00,63.8,58.5,29.82,NW,325,3.0,9.0,83,0.00,,OVC007,0.00,VWS V14.01,2013-05-10 14:14:00,
2013-05-10 09:18:00,63.3,58.4,29.82,NW,304,0.0,9.0,84,0.00,,OVC007,0.00,VWS V14.01,2013-05-10 14:18:00,
2013-05-10 09:19:00,63.3,58.4,29.82,NW,304,0.0,9.0,84,0.00,,OVC007,0.00,VWS V14.01,2013-05-10 14:19:00,
2013-05-10 09:20:00,63.1,58.2,29.82,NW,315,0.0,9.0,84,0.00,,OVC007,0.00,VWS V14.01,2013-05-10 14:20:00,
2013-05-10 09:24:00,63.0,58.1,29.82,NW,308,0.0,9.0,84,0.00,,OVC007,0.00,VWS V14.01,2013-05-10 14:24:00,
2013-05-10 09:25:00,63.0,58.1,29.82,WNW,298,0.0,9.0,84,0.00,,OVC007,0.00,VWS V14.01,2013-05-10 14:25:00,
2013-05-10 09:29:00,62.8,57.9,29.82,NW,318,1.0,9.0,84,0.00,,OVC007,0.00,VWS V14.01,2013-05-10 14:29:00,
2013-05-10 09:30:00,62.8,57.9,29.82,NNW,330,5.0,9.0,84,0.00,,OVC007,0.00,VWS V14.01,2013-05-10 14:30:00,
2013-05-10 09:34:00,62.6,57.7,29.82,NW,322,0.0,7.0,84,0.00,,OVC007,0.00,VWS V14.01,2013-05-10 14:34:00,
2013-05-10 09:35:00,62.6,57.7,29.82,NW,313,0.0,7.0,84,0.00,,OVC007,0.00,VWS V14.01,2013-05-10 14:35:00,
2013-05-10 09:39:00,62.5,57.6,29.82,NW,307,0.0,7.0,84,0.00,,OVC007,0.00,VWS V14.01,2013-05-10 14:39:00,
2013-05-10 09:40:00,62.5,57.6,29.82,NW,305,0.0,7.0,84,0.00,,OVC007,0.00,VWS V14.01,2013-05-10 14:40:00,
2013-05-10 09:44:00,62.6,57.7,29.82,NNW,333,0.0,10.0,84,0.00,,OVC007,0.00,VWS V14.01,2013-05-10 14:44:00,
2013-05-10 09:45:00,62.6,57.7,29.82,NW,324,5.0,10.0,84,0.00,,OVC007,0.00,VWS V14.01,2013-05-10 14:45:00,
2013-05-10 09:50:00,62.8,57.9,29.82,NW,313,0.0,10.0,84,0.00,,OVC007,0.00,VWS V14.01,2013-05-10 14:50:00,
2013-05-10 09:55:00,63.0,58.1,29.82,NW,324,1.0,10.0,84,0.00,,OVC007,0.00,VWS V14.01,2013-05-10 14:55:00,
2013-05-10 10:00:00,63.1,57.9,29.82,WNW,300,0.0,10.0,83,0.00,,OVC007,0.00,VWS V14.01,2013-05-10 15:00:00,
2013-05-10 10:01:00,63.1,57.9,29.82,WNW,296,0.0,0.0,83,0.00,,OVC009,0.00,VWS V14.01,2013-05-10 15:01:00,
2013-05-10 10:05:00,63.3,57.7,29.82,NW,317,1.0,10.0,82,0.00,,OVC009,0.00,VWS V14.01,2013-05-10 15:05:00,
2013-05-10 10:06:00,63.3,57.7,29.82,NW,304,1.0,10.0,82,0.00,,OVC009,0.00,VWS V14.01,2013-05-10 15:06:00,
2013-05-10 10:10:00,63.3,57.7,29.82,NNW,334,0.0,10.0,82,0.00,,OVC009,0.00,VWS V14.01,2013-05-10 15:10:00,
2013-05-10 10:11:00,63.3,57.7,29.82,NNW,327,0.0,10.0,82,0.00,,OVC009,0.00,VWS V14.01,2013-05-10 15:11:00,
2013-05-10 10:15:00,63.1,57.5,29.82,NW,306,0.0,10.0,82,0.00,,OVC009,0.00,VWS V14.01,2013-05-10 15:15:00,
2013-05-10 10:16:00,63.1,57.5,29.82,NW,306,0.0,10.0,82,0.00,,OVC009,0.00,VWS V14.01,2013-05-10 15:16:00,
2013-05-10 10:17:00,63.1,57.5,29.82,NW,312,0.0,10.0,82,0.00,,OVC009,0.00,VWS V14.01,2013-05-10 15:17:00,
2013-05-10 10:20:00,63.0,57.4,29.82,NW,317,0.0,10.0,82,0.00,,OVC009,0.00,VWS V14.01,2013-05-10 15:20:00,
2013-05-10 10:21:00,63.0,57.4,29.82,NW,316,0.0,10.0,82,0.00,,OVC009,0.00,VWS V14.01,2013-05-10 15:21:00,
2013-05-10 10:22:00,63.0,57.4,29.82,NW,317,4.0,10.0,82,0.00,,OVC009,0.00,VWS V14.01,2013-05-10 15:22:00,
2013-05-10 10:26:00,63.3,57.7,29.82,NW,310,0.0,10.0,82,0.00,,OVC009,0.00,VWS V14.01,2013-05-10 15:26:00,
2013-05-10 10:27:00,63.4,58.2,29.82,NNW,337,0.0,10.0,83,0.00,,OVC009,0.00,VWS V14.01,2013-05-10 15:27:00,
2013-05-10 10:30:00,63.6,57.7,29.82,NW,322,3.0,10.0,81,0.00,,,0.00,VWS V14.01,2013-05-10 15:30:00,
2013-05-10 10:31:00,63.6,57.7,29.82,WNW,292,6.0,6.0,81,0.00,,OVC009,0.00,VWS V14.01,2013-05-10 15:31:00,
2013-05-10 10:32:00,63.6,57.7,29.82,NW,313,5.0,6.0,81,0.00,,OVC009,0.00,VWS V14.01,2013-05-10 15:32:00,
2013-05-10 10:36:00,63.6,57.7,29.82,WNW,295,0.0,11.0,81,0.00,,OVC009,0.00,VWS V14.01,2013-05-10 15:36:00,
2013-05-10 10:37:00,63.4,57.5,29.82,WNW,296,0.0,11.0,81,0.00,,OVC009,0.00,VWS V14.01,2013-05-10 15:37:00,
2013-05-10 10:41:00,63.4,57.5,29.82,NNW,343,5.0,11.0,81,0.00,,OVC009,0.00,VWS V14.01,2013-05-10 15:41:00,
2013-05-10 10:42:00,63.4,57.5,29.82,NNW,335,3.0,11.0,81,0.00,,OVC009,0.00,VWS V14.01,2013-05-10 15:42:00,
2013-05-10 10:43:00,63.6,57.7,29.82,NW,315,0.0,11.0,81,0.00,,OVC009,0.00,VWS V14.01,2013-05-10 15:43:00,
2013-05-10 10:46:00,63.8,57.9,29.82,WNW,300,2.0,11.0,81,0.00,,OVC009,0.00,VWS V14.01,2013-05-10 15:46:00,
2013-05-10 10:47:00,63.8,57.9,29.82,WNW,301,0.0,11.0,81,0.00,,OVC009,0.00,VWS V14.01,2013-05-10 15:47:00,
2013-05-10 10:48:00,63.8,57.9,29.82,NW,317,3.0,11.0,81,0.00,,OVC009,0.00,VWS V14.01,2013-05-10 15:48:00,
2013-05-10 10:51:00,63.9,57.6,29.82,WNW,295,0.0,11.0,80,0.00,,OVC009,0.00,VWS V14.01,2013-05-10 15:51:00,
2013-05-10 10:52:00,63.9,57.6,29.82,NW,314,0.0,11.0,80,0.00,,OVC009,0.00,VWS V14.01,2013-05-10 15:52:00,
2013-05-10 10:53:00,63.9,58.0,29.82,WNW,300,0.0,11.0,81,0.00,,OVC009,0.00,VWS V14.01,2013-05-10 15:53:00,
2013-05-10 10:56:00,64.1,57.8,29.82,WNW,292,0.0,11.0,80,0.00,,OVC009,0.00,VWS V14.01,2013-05-10 15:56:00,
2013-05-10 10:57:00,64.1,57.8,29.82,WNW,290,0.0,11.0,80,0.00,,OVC009,0.00,VWS V14.01,2013-05-10 15:57:00,
2013-05-10 10:58:00,64.1,57.8,29.82,WNW,301,0.0,11.0,80,0.00,,OVC009,0.00,VWS V14.01,2013-05-10 15:58:00,
2013-05-10 11:00:00,64.2,57.9,29.82,NNW,336,2.0,11.0,80,0.00,,,0.00,VWS V14.01,2013-05-10 16:00:00,
2013-05-10 11:01:00,64.2,58.3,29.82,NNW,331,0.0,2.0,81,0.00,,OVC014,0.00,VWS V14.01,2013-05-10 16:01:00,
2013-05-10 11:02:00,64.4,58.5,29.82,NW,309,0.0,2.0,81,0.00,,OVC014,0.00,VWS V14.01,2013-05-10 16:02:00,
2013-05-10 11:03:00,64.4,58.5,29.82,NW,319,0.0,3.0,81,0.00,,OVC014,0.00,VWS V14.01,2013-05-10 16:03:00,
2013-05-10 11:07:00,64.2,57.9,29.82,WNW,284,0.0,6.0,80,0.00,,OVC014,0.00,VWS V14.01,2013-05-10 16:07:00,
2013-05-10 11:08:00,64.1,57.8,29.82,NW,305,5.0,9.0,80,0.00,,OVC014,0.00,VWS V14.01,2013-05-10 16:08:00,
2013-05-10 11:12:00,64.1,57.8,29.82,NW,317,0.0,9.0,80,0.00,,OVC014,0.00,VWS V14.01,2013-05-10 16:12:00,
2013-05-10 11:13:00,64.1,57.8,29.82,NW,322,0.0,9.0,80,0.00,,OVC014,0.00,VWS V14.01,2013-05-10 16:13:00,
2013-05-10 11:17:00,64.2,57.9,29.83,NNW,342,2.0,9.0,80,0.00,,OVC014,0.00,VWS V14.01,2013-05-10 16:17:00,
2013-05-10 11:19:00,64.4,58.1,29.83,WNW,298,8.0,9.0,80,0.00,,OVC014,0.00,VWS V14.01,2013-05-10 16:19:00,
2013-05-10 11:22:00,64.1,57.1,29.83,NW,309,3.0,11.0,78,0.00,,OVC014,0.00,VWS V14.01,2013-05-10 16:22:00,
2013-05-10 11:24:00,64.1,57.1,29.83,NW,313,0.0,11.0,78,0.00,,OVC014,0.00,VWS V14.01,2013-05-10 16:24:00,
2013-05-10 11:27:00,63.9,56.9,29.83,NW,308,4.0,11.0,78,0.00,,OVC014,0.00,VWS V14.01,2013-05-10 16:27:00,
2013-05-10 11:28:00,63.9,56.9,29.83,NNW,327,0.0,11.0,78,0.00,,OVC014,0.00,VWS V14.01,2013-05-10 16:28:00,
2013-05-10 11:29:00,63.9,57.3,29.84,NNW,329,0.0,11.0,79,0.00,,OVC014,0.00,VWS V14.01,2013-05-10 16:29:00,
2013-05-10 11:30:00,63.9,57.3,29.84,NW,318,0.0,11.0,79,0.00,,,0.00,VWS V14.01,2013-05-10 16:30:00,
2013-05-10 11:32:00,63.9,57.3,29.84,NNW,333,0.0,0.0,79,0.00,,OVC014,0.00,VWS V14.01,2013-05-10 16:32:00,
2013-05-10 11:33:00,63.9,57.3,29.84,NNW,331,0.0,0.0,79,0.00,,OVC014,0.00,VWS V14.01,2013-05-10 16:33:00,
2013-05-10 11:35:00,63.9,57.6,29.84,NW,319,0.0,3.0,80,0.00,,OVC014,0.00,VWS V14.01,2013-05-10 16:35:00,
2013-05-10 11:37:00,63.9,57.3,29.84,WNW,282,0.0,3.0,79,0.00,,OVC014,0.00,VWS V14.01,2013-05-10 16:37:00,
2013-05-10 11:38:00,63.9,57.3,29.84,WNW,282,0.0,3.0,79,0.00,,OVC014,0.00,VWS V14.01,2013-05-10 16:38:00,
2013-05-10 11:40:00,63.9,57.6,29.84,WNW,282,0.0,3.0,80,0.00,,OVC014,0.00,VWS V14.01,2013-05-10 16:40:00,
2013-05-10 11:42:00,64.1,57.5,29.84,NW,308,0.0,3.0,79,0.00,,OVC014,0.00,VWS V14.01,2013-05-10 16:42:00,
2013-05-10 11:43:00,64.1,57.1,29.84,NW,308,0.0,3.0,78,0.00,,OVC014,0.00,VWS V14.01,2013-05-10 16:43:00,
2013-05-10 11:45:00,64.2,57.2,29.84,NW,319,0.0,4.0,78,0.00,,OVC014,0.00,VWS V14.01,2013-05-10 16:45:00,
2013-05-10 11:47:00,64.6,57.6,29.84,WNW,297,3.0,5.0,78,0.00,,OVC014,0.00,VWS V14.01,2013-05-10 16:47:00,
2013-05-10 11:48:00,64.6,57.6,29.84,WNW,298,0.0,5.0,78,0.00,,OVC014,0.00,VWS V14.01,2013-05-10 16:48:00,
2013-05-10 11:50:00,64.6,57.2,29.84,WNW,294,0.0,5.0,77,0.00,,OVC014,0.00,VWS V14.01,2013-05-10 16:50:00,
2013-05-10 11:52:00,64.4,57.0,29.84,West,275,0.0,5.0,77,0.00,,OVC014,0.00,VWS V14.01,2013-05-10 16:52:00,
2013-05-10 11:53:00,64.4,57.0,29.84,West,275,0.0,5.0,77,0.00,,OVC014,0.00,VWS V14.01,2013-05-10 16:53:00,
2013-05-10 11:55:00,64.4,57.0,29.84,NNW,333,4.0,7.0,77,0.00,,OVC014,0.00,VWS V14.01,2013-05-10 16:55:00,
2013-05-10 11:57:00,64.2,57.2,29.84,WNW,292,0.0,7.0,78,0.00,,OVC014,0.00,VWS V14.01,2013-05-10 16:57:00,
2013-05-10 11:58:00,64.2,57.2,29.84,NW,319,7.0,7.0,78,0.00,,OVC014,0.00,VWS V14.01,2013-05-10 16:58:00,
2013-05-10 11:59:00,64.1,56.8,29.84,NW,306,4.0,11.0,77,0.00,,OVC014,0.00,VWS V14.01,2013-05-10 16:59:00,
2013-05-10 12:00:00,63.9,56.9,29.84,NNW,342,8.0,12.0,78,0.00,,OVC014,0.00,VWS V14.01,2013-05-10 17:00:00,
2013-05-10 12:02:00,63.4,56.8,29.84,NW,314,0.0,11.0,79,0.00,,OVC021,0.00,VWS V14.01,2013-05-10 17:02:00,
2013-05-10 12:03:00,63.3,56.7,29.84,NW,315,5.0,11.0,79,0.00,,OVC021,0.00,VWS V14.01,2013-05-10 17:03:00,
2013-05-10 12:04:00,63.1,56.5,29.84,NW,315,4.0,11.0,79,0.00,,OVC021,0.00,VWS V14.01,2013-05-10 17:04:00,
2013-05-10 12:05:00,63.0,56.7,29.84,WNW,302,5.0,11.0,80,0.00,,OVC021,0.00,VWS V14.01,2013-05-10 17:05:00,
2013-05-10 12:08:00,62.8,56.5,29.84,NW,306,0.0,11.0,80,0.00,,OVC021,0.00,VWS V14.01,2013-05-10 17:08:00,
2013-05-10 12:09:00,62.6,56.3,29.84,NW,321,0.0,11.0,80,0.00,,OVC021,0.00,VWS V14.01,2013-05-10 17:09:00,
2013-05-10 12:10:00,62.6,56.3,29.84,WNW,294,0.0,11.0,80,0.00,,OVC021,0.00,VWS V14.01,2013-05-10 17:10:00,
2013-05-10 12:13:00,62.5,56.2,29.84,WNW,292,0.0,11.0,80,0.00,,OVC021,0.00,VWS V14.01,2013-05-10 17:13:00,
2013-05-10 12:14:00,62.5,56.2,29.84,WNW,292,0.0,11.0,80,0.00,,OVC021,0.00,VWS V14.01,2013-05-10 17:14:00,
2013-05-10 12:15:00,62.5,56.2,29.84,WNW,300,0.0,11.0,80,0.00,,OVC021,0.00,VWS V14.01,2013-05-10 17:15:00,
2013-05-10 12:18:00,62.5,56.2,29.84,WNW,293,0.0,11.0,80,0.00,,OVC021,0.00,VWS V14.01,2013-05-10 17:18:00,
2013-05-10 12:19:00,62.5,56.2,29.84,NW,322,2.0,11.0,80,0.00,,OVC021,0.00,VWS V14.01,2013-05-10 17:19:00,
2013-05-10 12:20:00,62.5,55.9,29.84,NW,310,0.0,11.0,79,0.00,,OVC021,0.00,VWS V14.01,2013-05-10 17:20:00,
2013-05-10 12:23:00,62.6,55.7,29.84,NNW,340,0.0,11.0,78,0.00,,OVC021,0.00,VWS V14.01,2013-05-10 17:23:00,
2013-05-10 12:24:00,62.6,55.7,29.84,NW,323,6.0,11.0,78,0.00,,OVC021,0.00,VWS V14.01,2013-05-10 17:24:00,
2013-05-10 12:25:00,62.6,55.7,29.84,NW,315,0.0,11.0,78,0.00,,OVC021,0.00,VWS V14.01,2013-05-10 17:25:00,
2013-05-10 12:28:00,62.8,55.5,29.84,WNW,290,0.0,11.0,77,0.00,,OVC021,0.00,VWS V14.01,2013-05-10 17:28:00,
2013-05-10 12:29:00,63.0,55.7,29.84,NW,317,0.0,11.0,77,0.00,,OVC021,0.00,VWS V14.01,2013-05-10 17:29:00,
2013-05-10 12:30:00,63.0,55.7,29.84,NW,325,0.0,11.0,77,0.00,,OVC021,0.00,VWS V14.01,2013-05-10 17:30:00,
2013-05-10 12:33:00,63.1,55.8,29.84,WNW,290,2.0,7.0,77,0.00,,OVC021,0.00,VWS V14.01,2013-05-10 17:33:00,
2013-05-10 12:34:00,63.1,55.8,29.84,NW,305,0.0,7.0,77,0.00,,OVC021,0.00,VWS V14.01,2013-05-10 17:34:00,
2013-05-10 12:35:00,63.1,55.4,29.84,NW,317,0.0,7.0,76,0.00,,OVC021,0.00,VWS V14.01,2013-05-10 17:35:00,
2013-05-10 12:36:00,63.3,55.6,29.84,NW,321,0.0,7.0,76,0.00,,OVC021,0.00,VWS V14.01,2013-05-10 17:36:00,
2013-05-10 12:38:00,63.3,55.6,29.84,NW,317,0.0,7.0,76,0.00,,OVC021,0.00,VWS V14.01,2013-05-10 17:38:00,
2013-05-10 12:39:00,63.3,55.6,29.84,NW,315,0.0,7.0,76,0.00,,OVC021,0.00,VWS V14.01,2013-05-10 17:39:00,
2013-05-10 12:40:00,63.4,55.7,29.84,NNW,334,0.0,7.0,76,0.00,,OVC021,0.00,VWS V14.01,2013-05-10 17:40:00,
2013-05-10 12:41:00,63.4,55.3,29.84,West,279,3.0,7.0,75,0.00,,OVC021,0.00,VWS V14.01,2013-05-10 17:41:00,
2013-05-10 12:44:00,63.4,55.3,29.84,NW,311,0.0,7.0,75,0.00,,OVC021,0.00,VWS V14.01,2013-05-10 17:44:00,
2013-05-10 12:45:00,63.4,55.3,29.84,West,279,0.0,7.0,75,0.00,,OVC021,0.00,VWS V14.01,2013-05-10 17:45:00,
2013-05-10 12:46:00,63.6,55.5,29.84,NW,309,6.0,7.0,75,0.00,,OVC021,0.00,VWS V14.01,2013-05-10 17:46:00,
2013-05-10 12:49:00,63.9,55.8,29.84,NW,315,5.0,9.0,75,0.00,,OVC021,0.00,VWS V14.01,2013-05-10 17:49:00,
2013-05-10 12:50:00,64.1,56.0,29.84,NNW,330,0.0,9.0,75,0.00,,OVC021,0.00,VWS V14.01,2013-05-10 17:50:00,
2013-05-10 12:51:00,64.2,56.1,29.84,NW,305,0.0,9.0,75,0.00,,OVC021,0.00,VWS V14.01,2013-05-10 17:51:00,
2013-05-10 12:54:00,64.6,55.8,29.84,NW,324,9.0,10.0,73,0.00,,OVC021,0.00,VWS V14.01,2013-05-10 17:54:00,
2013-05-10 12:55:00,64.6,55.8,29.84,NW,316,0.0,10.0,73,0.00,,OVC021,0.00,VWS V14.01,2013-05-10 17:55:00,
2013-05-10 12:56:00,64.7,55.5,29.84,NW,307,0.0,10.0,72,0.00,,OVC021,0.00,VWS V14.01,2013-05-10 17:56:00,
2013-05-10 12:59:00,64.7,55.5,29.84,WNW,290,7.0,11.0,72,0.00,,OVC021,0.00,VWS V14.01,2013-05-10 17:59:00,
2013-05-10 13:00:00,64.7,55.5,29.82,WNW,296,1.0,11.0,72,0.00,,OVC021,0.00,VWS V14.01,2013-05-10 18:00:00,
2013-05-10 13:01:00,64.7,55.5,29.82,WNW,296,0.0,9.0,72,0.00,,OVC020,0.00,VWS V14.01,2013-05-10 18:01:00,
2013-05-10 13:04:00,65.1,56.2,29.82,WNW,297,0.0,9.0,73,0.00,,OVC020,0.00,VWS V14.01,2013-05-10 18:04:00,
2013-05-10 13:05:00,65.2,56.3,29.82,WNW,290,0.0,9.0,73,0.00,,OVC020,0.00,VWS V14.01,2013-05-10 18:05:00,
2013-05-10 13:06:00,65.2,56.3,29.82,NW,311,0.0,9.0,73,0.00,,OVC020,0.00,VWS V14.01,2013-05-10 18:06:00,
2013-05-10 13:09:00,65.9,56.6,29.82,WNW,297,0.0,9.0,72,0.00,,OVC020,0.00,VWS V14.01,2013-05-10 18:09:00,
2013-05-10 13:10:00,66.0,56.3,29.82,NNW,327,0.0,9.0,71,0.00,,OVC020,0.00,VWS V14.01,2013-05-10 18:10:00,
2013-05-10 13:11:00,66.0,56.0,29.82,NW,321,4.0,9.0,70,0.00,,OVC020,0.00,VWS V14.01,2013-05-10 18:11:00,
2013-05-10 13:14:00,66.3,56.2,29.82,North,350,5.0,9.0,70,0.00,,OVC020,0.00,VWS V14.01,2013-05-10 18:14:00,
2013-05-10 13:15:00,66.3,55.8,29.82,WNW,298,7.0,9.0,69,0.00,,OVC020,0.00,VWS V14.01,2013-05-10 18:15:00,
2013-05-10 13:16:00,66.3,55.8,29.82,WNW,297,0.0,9.0,69,0.00,,OVC020,0.00,VWS V14.01,2013-05-10 18:16:00,
2013-05-10 13:19:00,66.3,55.8,29.82,NNW,329,0.0,9.0,69,0.00,,OVC020,0.00,VWS V14.01,2013-05-10 18:19:00,
2013-05-10 13:20:00,66.3,56.2,29.82,NW,306,0.0,9.0,70,0.00,,OVC020,0.00,VWS V14.01,2013-05-10 18:20:00,
2013-05-10 13:21:00,66.3,55.8,29.82,NW,317,0.0,9.0,69,0.00,,OVC020,0.00,VWS V14.01,2013-05-10 18:21:00,
2013-05-10 13:24:00,66.2,55.3,29.82,NW,309,3.0,10.0,68,0.00,,OVC020,0.00,VWS V14.01,2013-05-10 18:24:00,
2013-05-10 13:25:00,66.0,55.5,29.82,NNW,328,2.0,10.0,69,0.00,,OVC020,0.00,VWS V14.01,2013-05-10 18:25:00,
2013-05-10 13:26:00,66.0,55.5,29.82,NW,304,2.0,10.0,69,0.00,,OVC020,0.00,VWS V14.01,2013-05-10 18:26:00,
2013-05-10 13:27:00,66.0,55.5,29.82,NW,305,0.0,10.0,69,0.00,,OVC020,0.00,VWS V14.01,2013-05-10 18:27:00,
2013-05-10 13:30:00,66.0,56.0,29.82,NW,304,0.0,10.0,70,0.00,,OVC020,0.00,VWS V14.01,2013-05-10 18:30:00,
2013-05-10 13:31:00,66.0,56.3,29.82,North,355,0.0,0.0,71,0.00,,OVC020,0.00,VWS V14.01,2013-05-10 18:31:00,
2013-05-10 13:32:00,66.0,56.0,29.82,NW,321,0.0,0.0,70,0.00,,OVC020,0.00,VWS V14.01,2013-05-10 18:32:00,
2013-05-10 13:35:00,65.9,55.8,29.82,NW,315,2.0,7.0,70,0.00,,OVC020,0.00,VWS V14.01,2013-05-10 18:35:00,
2013-05-10 13:36:00,66.0,56.3,29.82,NW,326,0.0,7.0,71,0.00,,OVC020,0.00,VWS V14.01,2013-05-10 18:36:00,
2013-05-10 13:37:00,66.0,56.3,29.82,NW,323,0.0,7.0,71,0.00,,OVC020,0.00,VWS V14.01,2013-05-10 18:37:00,
2013-05-10 13:40:00,66.0,56.3,29.82,NW,312,0.0,7.0,71,0.00,,OVC020,0.00,VWS V14.01,2013-05-10 18:40:00,
2013-05-10 13:41:00,66.0,56.3,29.82,NW,312,0.0,7.0,71,0.00,,OVC020,0.00,VWS V14.01,2013-05-10 18:41:00,
2013-05-10 13:42:00,66.2,56.5,29.82,NW,323,0.0,7.0,71,0.00,,OVC020,0.00,VWS V14.01,2013-05-10 18:42:00,
2013-05-10 13:45:00,66.7,57.0,29.82,WNW,303,0.0,7.0,71,0.00,,OVC020,0.00,VWS V14.01,2013-05-10 18:45:00,
2013-05-10 13:46:00,66.7,57.0,29.82,WNW,303,0.0,7.0,71,0.00,,OVC020,0.00,VWS V14.01,2013-05-10 18:46:00,
2013-05-10 13:47:00,66.8,56.7,29.82,NW,326,0.0,7.0,70,0.00,,OVC020,0.00,VWS V14.01,2013-05-10 18:47:00,
2013-05-10 13:51:00,67.2,56.7,29.82,WNW,282,0.0,7.0,69,0.00,,OVC020,0.00,VWS V14.01,2013-05-10 18:51:00,
2013-05-10 13:52:00,67.2,56.3,29.82,WNW,284,2.0,7.0,68,0.00,,OVC020,0.00,VWS V14.01,2013-05-10 18:52:00,
2013-05-10 13:53:00,67.2,56.3,29.82,WNW,284,0.0,7.0,68,0.00,,OVC020,0.00,VWS V14.01,2013-05-10 18:53:00,
2013-05-10 13:56:00,66.8,55.9,29.82,WNW,290,0.0,7.0,68,0.00,,OVC020,0.00,VWS V14.01,2013-05-10 18:56:00,
2013-05-10 13:57:00,66.7,55.8,29.82,WNW,290,0.0,7.0,68,0.00,,OVC020,0.00,VWS V14.01,2013-05-10 18:57:00,
2013-05-10 13:58:00,66.7,56.2,29.82,WNW,284,0.0,7.0,69,0.00,,OVC020,0.00,VWS V14.01,2013-05-10 18:58:00,
2013-05-10 14:00:00,66.3,55.8,29.82,NW,313,0.0,9.0,69,0.00,,,0.00,VWS V14.01,2013-05-10 19:00:00,
2013-05-10 14:01:00,66.3,55.8,29.82,WNW,301,2.0,2.0,69,0.00,,OVC020,0.00,VWS V14.01,2013-05-10 19:01:00,
2013-05-10 14:02:00,66.2,56.1,29.82,NW,304,0.0,3.0,70,0.00,,OVC038,0.00,VWS V14.01,2013-05-10 19:02:00,
2013-05-10 14:03:00,66.0,56.3,29.82,NW,304,0.0,3.0,71,0.00,,OVC038,0.00,VWS V14.01,2013-05-10 19:03:00,
2013-05-10 14:06:00,65.9,56.2,29.82,West,276,0.0,4.0,71,0.00,,OVC038,0.00,VWS V14.01,2013-05-10 19:06:00,
2013-05-10 14:07:00,65.7,56.4,29.82,NW,309,3.0,5.0,72,0.00,,OVC038,0.00,VWS V14.01,2013-05-10 19:07:00,
2013-05-10 14:08:00,65.7,56.4,29.82,NW,311,1.0,5.0,72,0.00,,OVC038,0.00,VWS V14.01,2013-05-10 19:08:00,
2013-05-10 14:11:00,65.4,56.5,29.82,NNW,339,7.0,9.0,73,0.00,,OVC038,0.00,VWS V14.01,2013-05-10 19:11:00,
2013-05-10 14:13:00,65.1,56.6,29.82,NNW,336,0.0,13.0,74,0.00,,OVC038,0.00,VWS V14.01,2013-05-10 19:13:00,
2013-05-10 14:16:00,64.2,56.8,29.83,NW,315,6.0,13.0,77,0.00,,OVC038,0.00,VWS V14.01,2013-05-10 19:16:00,
2013-05-10 14:18:00,63.8,56.8,29.83,NNE,16,5.0,13.0,78,0.00,,OVC038,0.00,VWS V14.01,2013-05-10 19:18:00,
2013-05-10 14:21:00,63.0,56.7,29.83,WNW,291,6.0,13.0,80,0.00,,OVC038,0.00,VWS V14.01,2013-05-10 19:21:00,
2013-05-10 14:22:00,63.0,56.7,29.83,NW,326,4.0,13.0,80,0.00,,OVC038,0.00,VWS V14.01,2013-05-10 19:22:00,
2013-05-10 14:23:00,62.8,56.9,29.83,NNW,337,0.0,13.0,81,0.00,,OVC038,0.00,VWS V14.01,2013-05-10 19:23:00,
2013-05-10 14:26:00,62.6,56.7,29.83,NNW,329,11.0,13.0,81,0.00,,OVC038,0.00,VWS V14.01,2013-05-10 19:26:00,
2013-05-10 14:27:00,62.5,56.6,29.83,NNW,336,15.0,15.0,81,0.00,,OVC038,0.00,VWS V14.01,2013-05-10 19:27:00,
2013-05-10 14:28:00,62.2,56.3,29.83,NNW,338,4.0,15.0,81,0.00,,OVC038,0.00,VWS V14.01,2013-05-10 19:28:00,
2013-05-10 14:29:00,62.0,56.1,29.83,NW,304,13.0,16.0,81,0.00,,OVC038,0.00,VWS V14.01,2013-05-10 19:29:00,
2013-05-10 14:30:00,61.7,56.2,29.84,North,350,4.0,16.0,82,0.00,,,0.00,VWS V14.01,2013-05-10 19:30:00,
2013-05-10 14:31:00,61.7,56.2,29.84,NW,314,1.0,6.0,82,0.00,,OVC038,0.00,VWS V14.01,2013-05-10 19:31:00,
2013-05-10 14:32:00,61.5,56.0,29.84,NW,324,5.0,6.0,82,0.00,,OVC038,0.00,VWS V14.01,2013-05-10 19:32:00,
2013-05-10 14:33:00,61.5,56.0,29.84,WNW,286,2.0,6.0,82,0.00,,OVC038,0.00,VWS V14.01,2013-05-10 19:33:00,
2013-05-10 14:34:00,61.5,56.3,29.84,NW,314,1.0,6.0,83,0.00,,OVC038,0.00,VWS V14.01,2013-05-10 19:34:00,
2013-05-10 14:36:00,61.2,56.0,29.84,NW,313,7.0,10.0,83,0.00,,OVC038,0.00,VWS V14.01,2013-05-10 19:36:00,
2013-05-10 14:37:00,61.2,56.0,29.84,NW,318,6.0,10.0,83,0.00,,OVC038,0.00,VWS V14.01,2013-05-10 19:37:00,
2013-05-10 14:38:00,61.1,55.9,29.84,NW,306,2.0,10.0,83,0.00,,OVC038,0.00,VWS V14.01,2013-05-10 19:38:00,
2013-05-10 14:39:00,60.9,55.7,29.84,WNW,292,1.0,10.0,83,0.00,,OVC038,0.00,VWS V14.01,2013-05-10 19:39:00,
2013-05-10 14:40:00,60.9,55.7,29.84,NW,322,2.0,10.0,83,0.00,,OVC038,0.00,VWS V14.01,2013-05-10 19:40:00,
2013-05-10 14:42:00,60.9,56.0,29.84,NW,307,4.0,10.0,84,0.00,,OVC038,0.00,VWS V14.01,2013-05-10 19:42:00,
2013-05-10 14:43:00,60.8,55.9,29.84,WNW,294,7.0,10.0,84,0.00,,OVC038,0.00,VWS V14.01,2013-05-10 19:43:00,
2013-05-10 14:44:00,60.6,55.8,29.84,NW,313,0.0,10.0,84,0.00,,OVC038,0.00,VWS V14.01,2013-05-10 19:44:00,
2013-05-10 14:45:00,60.6,55.8,29.85,NW,320,4.0,10.0,84,0.00,,OVC038,0.00,VWS V14.01,2013-05-10 19:45:00,
2013-05-10 14:47:00,60.3,55.5,29.85,NW,309,2.0,14.0,84,0.00,,OVC038,0.00,VWS V14.01,2013-05-10 19:47:00,
2013-05-10 14:48:00,60.1,55.6,29.85,NW,309,7.0,14.0,85,0.00,,OVC038,0.00,VWS V14.01,2013-05-10 19:48:00,
2013-05-10 14:50:00,60.0,55.5,29.85,NW,321,4.0,14.0,85,0.00,,OVC038,0.00,VWS V14.01,2013-05-10 19:50:00,
2013-05-10 14:52:00,59.8,55.3,29.85,WNW,292,2.0,14.0,85,0.00,,OVC038,0.00,VWS V14.01,2013-05-10 19:52:00,
2013-05-10 14:53:00,59.7,55.2,29.85,NNW,328,5.0,14.0,85,0.00,,OVC038,0.00,VWS V14.01,2013-05-10 19:53:00,
2013-05-10 14:55:00,59.5,55.3,29.85,NW,323,7.0,14.0,86,0.00,,OVC038,0.00,VWS V14.01,2013-05-10 19:55:00,
2013-05-10 14:57:00,59.4,55.2,29.85,NW,323,4.0,14.0,86,0.00,,OVC038,0.00,VWS V14.01,2013-05-10 19:57:00,
2013-05-10 14:58:00,59.2,55.0,29.85,NNW,331,11.0,14.0,86,0.00,,OVC038,0.00,VWS V14.01,2013-05-10 19:58:00,
2013-05-10 15:00:00,58.9,54.7,29.86,WNW,300,7.0,14.0,86,0.00,,OVC038,0.00,VWS V14.01,2013-05-10 20:00:00,
2013-05-10 15:02:00,58.9,55.0,29.86,NNW,331,1.0,7.0,87,0.00,,OVC005,0.00,VWS V14.01,2013-05-10 20:02:00,
2013-05-10 15:03:00,58.8,55.0,29.86,NW,311,5.0,9.0,87,0.00,,OVC005,0.00,VWS V14.01,2013-05-10 20:03:00,
2013-05-10 15:05:00,58.8,55.0,29.86,WNW,296,2.0,9.0,87,0.00,,OVC005,0.00,VWS V14.01,2013-05-10 20:05:00,
2013-05-10 15:07:00,58.8,55.0,29.86,WNW,303,2.0,9.0,87,0.00,,OVC005,0.00,VWS V14.01,2013-05-10 20:07:00,
2013-05-10 15:08:00,58.8,55.0,29.86,NW,304,0.0,9.0,87,0.00,,OVC005,0.00,VWS V14.01,2013-05-10 20:08:00,
2013-05-10 15:09:00,58.8,55.0,29.86,WNW,302,2.0,9.0,87,0.00,,OVC005,0.00,VWS V14.01,2013-05-10 20:09:00,
2013-05-10 15:10:00,58.6,54.8,29.86,NW,319,4.0,9.0,87,0.00,,OVC005,0.00,VWS V14.01,2013-05-10 20:10:00,
2013-05-10 15:13:00,58.6,54.8,29.86,NW,306,3.0,9.0,87,0.00,,OVC005,0.00,VWS V14.01,2013-05-10 20:13:00,
2013-05-10 15:14:00,58.6,54.8,29.86,North,350,1.0,9.0,87,0.00,,OVC005,0.00,VWS V14.01,2013-05-10 20:14:00,
2013-05-10 15:15:00,58.6,54.8,29.86,WNW,300,0.0,9.0,87,0.00,,OVC005,0.00,VWS V14.01,2013-05-10 20:15:00,
2013-05-10 15:16:00,58.6,54.8,29.86,NW,309,5.0,9.0,87,0.00,,OVC005,0.00,VWS V14.01,2013-05-10 20:16:00,
2013-05-10 15:18:00,58.6,54.8,29.86,NW,304,1.0,9.0,87,0.00,,OVC005,0.00,VWS V14.01,2013-05-10 20:18:00,
2013-05-10 15:19:00,58.6,54.8,29.86,NW,325,5.0,9.0,87,0.00,,OVC005,0.00,VWS V14.01,2013-05-10 20:19:00,
2013-05-10 15:20:00,58.6,54.8,29.86,NW,325,9.0,11.0,87,0.00,,OVC005,0.00,VWS V14.01,2013-05-10 20:20:00,
2013-05-10 15:21:00,58.5,54.7,29.86,NNW,340,9.0,11.0,87,0.00,,OVC005,0.00,VWS V14.01,2013-05-10 20:21:00,
2013-05-10 15:23:00,58.3,54.5,29.86,NNW,340,8.0,11.0,87,0.00,,OVC005,0.00,VWS V14.01,2013-05-10 20:23:00,
2013-05-10 15:24:00,58.3,54.5,29.86,WNW,283,0.0,11.0,87,0.00,,OVC005,0.00,VWS V14.01,2013-05-10 20:24:00,
2013-05-10 15:26:00,58.3,54.5,29.86,WNW,297,4.0,12.0,87,0.00,,OVC005,0.00,VWS V14.01,2013-05-10 20:26:00,
2013-05-10 15:28:00,58.3,54.1,29.86,NNW,330,5.0,12.0,86,0.00,,OVC005,0.00,VWS V14.01,2013-05-10 20:28:00,
2013-05-10 15:29:00,58.3,54.1,29.86,NNW,340,4.0,12.0,86,0.00,,OVC005,0.00,VWS V14.01,2013-05-10 20:29:00,
2013-05-10 15:30:00,58.5,54.3,29.85,NW,306,6.0,12.0,86,0.00,,,0.00,VWS V14.01,2013-05-10 20:30:00,
2013-05-10 15:31:00,58.5,54.3,29.85,WNW,298,2.0,8.0,86,0.00,,OVC005,0.00,VWS V14.01,2013-05-10 20:31:00,
2013-05-10 15:33:00,58.5,54.0,29.85,NW,326,2.0,12.0,85,0.00,,OVC005,0.00,VWS V14.01,2013-05-10 20:33:00,
2013-05-10 15:34:00,58.5,54.0,29.85,WNW,298,1.0,12.0,85,0.00,,OVC005,0.00,VWS V14.01,2013-05-10 20:34:00,
2013-05-10 15:36:00,58.5,54.0,29.85,NW,309,5.0,12.0,85,0.00,,OVC005,0.00,VWS V14.01,2013-05-10 20:36:00,
2013-05-10 15:38:00,58.5,53.7,29.85,NW,326,10.0,13.0,84,0.00,,OVC005,0.00,VWS V14.01,2013-05-10 20:38:00,
2013-05-10 15:39:00,58.5,53.7,29.85,North,351,5.0,13.0,84,0.00,,OVC005,0.00,VWS V14.01,2013-05-10 20:39:00,
2013-05-10 15:41:00,58.5,53.7,29.85,NW,304,0.0,13.0,84,0.00,,OVC005,0.00,VWS V14.01,2013-05-10 20:41:00,
2013-05-10 15:42:00,58.6,53.8,29.85,North,5,2.0,13.0,84,0.00,,OVC005,0.00,VWS V14.01,2013-05-10 20:42:00,
2013-05-10 15:43:00,58.6,53.8,29.85,NW,311,0.0,13.0,84,0.00,,OVC005,0.00,VWS V14.01,2013-05-10 20:43:00,
2013-05-10 15:44:00,58.6,53.8,29.85,West,275,2.0,13.0,84,0.00,,OVC005,0.00,VWS V14.01,2013-05-10 20:44:00,
2013-05-10 15:46:00,58.6,53.8,29.86,NNW,327,5.0,14.0,84,0.00,,OVC005,0.00,VWS V14.01,2013-05-10 20:46:00,
2013-05-10 15:47:00,58.6,53.8,29.86,NW,323,4.0,14.0,84,0.00,,OVC005,0.00,VWS V14.01,2013-05-10 20:47:00,
2013-05-10 15:48:00,58.6,53.8,29.86,NNW,331,9.0,14.0,84,0.00,,OVC005,0.00,VWS V14.01,2013-05-10 20:48:00,
2013-05-10 15:49:00,58.5,53.7,29.86,NNW,331,7.0,14.0,84,0.00,,OVC005,0.00,VWS V14.01,2013-05-10 20:49:00,
2013-05-10 15:52:00,58.5,53.4,29.86,NNW,327,12.0,14.0,83,0.00,,OVC005,0.00,VWS V14.01,2013-05-10 20:52:00,
2013-05-10 15:54:00,58.3,53.2,29.86,NW,320,1.0,15.0,83,0.00,,OVC005,0.00,VWS V14.01,2013-05-10 20:54:00,
2013-05-10 15:57:00,58.3,53.2,29.86,NNW,336,3.0,15.0,83,0.00,,OVC005,0.00,VWS V14.01,2013-05-10 20:57:00,
2013-05-10 15:59:00,58.5,53.7,29.86,North,355,2.0,15.0,84,0.00,,OVC005,0.00,VWS V14.01,2013-05-10 20:59:00,
2013-05-10 16:00:00,58.5,53.4,29.86,WNW,295,0.0,15.0,83,0.00,,,0.00,VWS V14.01,2013-05-10 21:00:00,
2013-05-10 16:02:00,58.5,53.4,29.86,WNW,293,0.0,4.0,83,0.00,,OVC007,0.00,VWS V14.01,2013-05-10 21:02:00,
2013-05-10 16:04:00,58.5,53.0,29.86,NNW,328,9.0,13.0,82,0.00,,OVC007,0.00,VWS V14.01,2013-05-10 21:04:00,
2013-05-10 16:05:00,58.3,52.8,29.86,NNW,331,7.0,13.0,82,0.00,,OVC007,0.00,VWS V14.01,2013-05-10 21:05:00,
2013-05-10 16:07:00,58.2,52.7,29.86,NW,321,13.0,13.0,82,0.00,,OVC007,0.00,VWS V14.01,2013-05-10 21:07:00,
2013-05-10 16:09:00,58.2,52.7,29.86,NW,323,12.0,13.0,82,0.00,,OVC007,0.00,VWS V14.01,2013-05-10 21:09:00,
2013-05-10 16:10:00,58.2,52.7,29.86,NW,312,5.0,13.0,82,0.00,,OVC007,0.00,VWS V14.01,2013-05-10 21:10:00,
2013-05-10 16:12:00,58.0,52.5,29.86,NW,317,9.0,13.0,82,0.00,,OVC007,0.00,VWS V14.01,2013-05-10 21:12:00,
2013-05-10 16:13:00,58.0,52.5,29.86,NW,325,7.0,13.0,82,0.00,,OVC007,0.00,VWS V14.01,2013-05-10 21:13:00,
2013-05-10 16:14:00,58.0,52.5,29.86,WNW,298,0.0,13.0,82,0.00,,OVC007,0.00,VWS V14.01,2013-05-10 21:14:00,
2013-05-10 16:15:00,58.0,52.5,29.86,NW,306,6.0,13.0,82,0.00,,OVC007,0.00,VWS V14.01,2013-05-10 21:15:00,
2013-05-10 16:17:00,58.0,52.2,29.86,NW,323,4.0,13.0,81,0.00,,OVC007,0.00,VWS V14.01,2013-05-10 21:17:00,
2013-05-10 16:18:00,58.0,52.5,29.86,WNW,296,5.0,13.0,82,0.00,,OVC007,0.00,VWS V14.01,2013-05-10 21:18:00,
2013-05-10 16:19:00,58.0,52.2,29.86,North,350,13.0,14.0,81,0.00,,OVC007,0.00,VWS V14.01,2013-05-10 21:19:00,
2013-05-10 16:20:00,58.0,52.2,29.86,NNW,340,3.0,14.0,81,0.00,,OVC007,0.00,VWS V14.01,2013-05-10 21:20:00,
2013-05-10 16:22:00,58.2,52.7,29.86,NNW,336,3.0,14.0,82,0.00,,OVC007,0.00,VWS V14.01,2013-05-10 21:22:00,
2013-05-10 16:23:00,58.2,52.7,29.86,North,355,3.0,14.0,82,0.00,,OVC007,0.00,VWS V14.01,2013-05-10 21:23:00,
2013-05-10 16:24:00,58.3,52.8,29.86,NNW,339,5.0,14.0,82,0.00,,OVC007,0.00,VWS V14.01,2013-05-10 21:24:00,
2013-05-10 16:25:00,58.3,52.5,29.86,NW,311,4.0,14.0,81,0.00,,OVC007,0.00,VWS V14.01,2013-05-10 21:25:00,
2013-05-10 16:27:00,58.3,52.5,29.86,WNW,294,8.0,14.0,81,0.00,,OVC007,0.00,VWS V14.01,2013-05-10 21:27:00,
2013-05-10 16:28:00,58.3,52.5,29.86,WNW,298,6.0,14.0,81,0.00,,OVC007,0.00,VWS V14.01,2013-05-10 21:28:00,
2013-05-10 16:29:00,58.3,52.5,29.86,NW,304,2.0,14.0,81,0.00,,OVC007,0.00,VWS V14.01,2013-05-10 21:29:00,
2013-05-10 16:30:00,58.2,52.4,29.86,NNE,13,10.0,17.0,81,0.00,,OVC007,0.00,VWS V14.01,2013-05-10 21:30:00,
2013-05-10 16:32:00,58.2,52.4,29.86,NW,306,3.0,11.0,81,0.00,,OVC007,0.00,VWS V14.01,2013-05-10 21:32:00,
2013-05-10 16:33:00,58.2,52.1,29.86,NNW,329,6.0,11.0,80,0.00,,OVC007,0.00,VWS V14.01,2013-05-10 21:33:00,
2013-05-10 16:34:00,58.2,52.1,29.86,North,5,10.0,11.0,80,0.00,,OVC007,0.00,VWS V14.01,2013-05-10 21:34:00,
2013-05-10 16:35:00,58.0,51.9,29.86,NNW,332,0.0,11.0,80,0.00,,OVC007,0.00,VWS V14.01,2013-05-10 21:35:00,
2013-05-10 16:38:00,58.0,52.2,29.86,NW,325,0.0,11.0,81,0.00,,OVC007,0.00,VWS V14.01,2013-05-10 21:38:00,
2013-05-10 16:39:00,58.2,52.4,29.86,NNW,335,2.0,11.0,81,0.00,,OVC007,0.00,VWS V14.01,2013-05-10 21:39:00,
2013-05-10 16:40:00,58.0,51.9,29.86,NNW,343,7.0,12.0,80,0.00,,OVC007,0.00,VWS V14.01,2013-05-10 21:40:00,
2013-05-10 16:43:00,58.0,51.9,29.86,NW,306,9.0,13.0,80,0.00,,OVC007,0.00,VWS V14.01,2013-05-10 21:43:00,
2013-05-10 16:44:00,57.9,51.8,29.86,NW,317,6.0,13.0,80,0.00,,OVC007,0.00,VWS V14.01,2013-05-10 21:44:00,
2013-05-10 16:45:00,57.9,52.1,29.86,North,5,6.0,13.0,81,0.00,,OVC007,0.00,VWS V14.01,2013-05-10 21:45:00,
2013-05-10 16:46:00,57.9,52.1,29.86,NW,313,4.0,13.0,81,0.00,,OVC007,0.00,VWS V14.01,2013-05-10 21:46:00,
2013-05-10 16:48:00,57.9,51.8,29.86,NW,314,4.0,13.0,80,0.00,,OVC007,0.00,VWS V14.01,2013-05-10 21:48:00,
2013-05-10 16:49:00,57.9,52.1,29.86,NW,306,2.0,13.0,81,0.00,,OVC007,0.00,VWS V14.01,2013-05-10 21:49:00,
2013-05-10 16:50:00,57.9,52.1,29.86,NNW,344,1.0,13.0,81,0.00,,OVC007,0.00,VWS V14.01,2013-05-10 21:50:00,
2013-05-10 16:51:00,57.9,52.1,29.86,WNW,298,0.0,13.0,81,0.00,,OVC007,0.00,VWS V14.01,2013-05-10 21:51:00,
2013-05-10 16:53:00,57.9,52.1,29.86,NNW,336,10.0,13.0,81,0.00,,OVC007,0.00,VWS V14.01,2013-05-10 21:53:00,
2013-05-10 16:54:00,57.9,52.1,29.86,NW,325,8.0,14.0,81,0.00,,OVC007,0.00,VWS V14.01,2013-05-10 21:54:00,
2013-05-10 16:56:00,57.9,52.1,29.86,NW,304,0.0,14.0,81,0.00,,OVC007,0.00,VWS V14.01,2013-05-10 21:56:00,
2013-05-10 16:58:00,57.9,52.1,29.86,NNW,338,10.0,14.0,81,0.00,,OVC007,0.00,VWS V14.01,2013-05-10 21:58:00,
2013-05-10 17:00:00,57.7,51.9,29.87,NW,322,3.0,14.0,81,0.00,,,0.00,VWS V14.01,2013-05-10 22:00:00,
2013-05-10 17:03:00,57.7,51.9,29.87,NNW,340,7.0,13.0,81,0.00,,OVC011,0.00,VWS V14.01,2013-05-10 22:03:00,
2013-05-10 17:08:00,57.5,51.7,29.87,WNW,294,4.0,13.0,81,0.00,,OVC011,0.00,VWS V14.01,2013-05-10 22:08:00,
2013-05-10 17:13:00,57.4,51.6,29.87,North,350,1.0,13.0,81,0.00,,OVC011,0.00,VWS V14.01,2013-05-10 22:13:00,
2013-05-10 17:14:00,57.4,51.6,29.87,NNW,343,5.0,13.0,81,0.00,,OVC011,0.00,VWS V14.01,2013-05-10 22:14:00,
2013-05-10 17:18:00,57.4,52.0,29.87,NW,312,0.0,13.0,82,0.00,,OVC011,0.00,VWS V14.01,2013-05-10 22:18:00,
2013-05-10 17:19:00,57.4,51.6,29.87,NW,321,4.0,13.0,81,0.00,,OVC011,0.00,VWS V14.01,2013-05-10 22:19:00,
2013-05-10 17:23:00,57.2,51.4,29.87,NNW,340,0.0,13.0,81,0.00,,OVC011,0.00,VWS V14.01,2013-05-10 22:23:00,
2013-05-10 17:24:00,57.2,51.4,29.87,NW,316,9.0,13.0,81,0.00,,OVC011,0.00,VWS V14.01,2013-05-10 22:24:00,
2013-05-10 17:28:00,57.2,51.4,29.87,NW,318,10.0,13.0,81,0.00,,OVC011,0.00,VWS V14.01,2013-05-10 22:28:00,
2013-05-10 17:29:00,57.2,51.4,29.87,NNW,336,4.0,13.0,81,0.00,,OVC011,0.00,VWS V14.01,2013-05-10 22:29:00,
2013-05-10 17:30:00,57.2,50.8,29.88,NW,319,0.0,13.0,79,0.00,,OVC011,0.00,VWS V14.01,2013-05-10 22:30:00,
2013-05-10 17:33:00,57.4,51.6,29.88,WNW,300,0.0,0.0,81,0.00,,OVC011,0.00,VWS V14.01,2013-05-10 22:33:00,
2013-05-10 17:34:00,57.4,51.6,29.88,WNW,301,0.0,0.0,81,0.00,,OVC011,0.00,VWS V14.01,2013-05-10 22:34:00,
2013-05-10 17:35:00,57.4,51.6,29.88,NW,313,2.0,11.0,81,0.00,,OVC011,0.00,VWS V14.01,2013-05-10 22:35:00,
2013-05-10 17:38:00,57.4,51.6,29.88,NNW,335,0.0,11.0,81,0.00,,OVC011,0.00,VWS V14.01,2013-05-10 22:38:00,
2013-05-10 17:39:00,57.4,51.6,29.88,NNW,336,0.0,11.0,81,0.00,,OVC011,0.00,VWS V14.01,2013-05-10 22:39:00,
2013-05-10 17:40:00,57.4,51.6,29.88,NNW,337,4.0,11.0,81,0.00,,OVC011,0.00,VWS V14.01,2013-05-10 22:40:00,
2013-05-10 17:43:00,57.4,51.6,29.88,NNW,330,7.0,11.0,81,0.00,,OVC011,0.00,VWS V14.01,2013-05-10 22:43:00,
2013-05-10 17:44:00,57.4,51.6,29.88,WNW,291,4.0,11.0,81,0.00,,OVC011,0.00,VWS V14.01,2013-05-10 22:44:00,
2013-05-10 17:45:00,57.2,51.4,29.88,NNW,342,0.0,11.0,81,0.00,,OVC011,0.00,VWS V14.01,2013-05-10 22:45:00,
2013-05-10 17:48:00,57.2,51.4,29.88,NNW,345,5.0,11.0,81,0.00,,OVC011,0.00,VWS V14.01,2013-05-10 22:48:00,
2013-05-10 17:49:00,57.2,51.4,29.88,NW,321,0.0,11.0,81,0.00,,OVC011,0.00,VWS V14.01,2013-05-10 22:49:00,
2013-05-10 17:51:00,57.1,51.3,29.88,NW,321,12.0,12.0,81,0.00,,OVC011,0.00,VWS V14.01,2013-05-10 22:51:00,
2013-05-10 17:53:00,57.1,51.3,29.88,NW,311,3.0,12.0,81,0.00,,OVC011,0.00,VWS V14.01,2013-05-10 22:53:00,
2013-05-10 17:54:00,57.1,51.3,29.88,NW,321,5.0,12.0,81,0.00,,OVC011,0.00,VWS V14.01,2013-05-10 22:54:00,
2013-05-10 17:56:00,56.9,51.1,29.88,NW,313,0.0,12.0,81,0.00,,OVC011,0.00,VWS V14.01,2013-05-10 22:56:00,
2013-05-10 17:58:00,56.9,51.5,29.88,NE,35,4.0,12.0,82,0.00,,OVC011,0.00,VWS V14.01,2013-05-10 22:58:00,
2013-05-10 17:59:00,56.9,51.5,29.88,NNW,344,5.0,12.0,82,0.00,,OVC011,0.00,VWS V14.01,2013-05-10 22:59:00,
2013-05-10 18:00:00,56.9,51.5,29.88,NW,318,3.0,12.0,82,0.00,,OVC011,0.00,VWS V14.01,2013-05-10 23:00:00,
2013-05-10 18:01:00,56.8,51.4,29.88,WNW,300,1.0,4.0,82,0.00,,OVC021,0.00,VWS V14.01,2013-05-10 23:01:00,
2013-05-10 18:03:00,56.6,51.2,29.88,North,351,10.0,12.0,82,0.00,,OVC021,0.00,VWS V14.01,2013-05-10 23:03:00,
2013-05-10 18:04:00,56.6,51.2,29.88,NW,323,7.0,12.0,82,0.00,,OVC021,0.00,VWS V14.01,2013-05-10 23:04:00,
2013-05-10 18:05:00,56.6,51.2,29.88,WNW,303,6.0,12.0,82,0.00,,OVC021,0.00,VWS V14.01,2013-05-10 23:05:00,
2013-05-10 18:06:00,56.5,51.1,29.88,North,5,1.0,12.0,82,0.00,,OVC021,0.00,VWS V14.01,2013-05-10 23:06:00,
2013-05-10 18:09:00,56.5,51.1,29.88,NW,309,6.0,13.0,82,0.00,,OVC021,0.00,VWS V14.01,2013-05-10 23:09:00,
2013-05-10 18:10:00,56.4,51.0,29.88,NW,311,5.0,13.0,82,0.00,,OVC021,0.00,VWS V14.01,2013-05-10 23:10:00,
2013-05-10 18:11:00,56.4,51.0,29.88,NW,310,3.0,13.0,82,0.00,,OVC021,0.00,VWS V14.01,2013-05-10 23:11:00,
2013-05-10 18:14:00,56.4,51.0,29.88,NNW,345,1.0,13.0,82,0.00,,OVC021,0.00,VWS V14.01,2013-05-10 23:14:00,
2013-05-10 18:15:00,56.4,51.0,29.88,WNW,298,14.0,14.0,82,0.00,,OVC021,0.00,VWS V14.01,2013-05-10 23:15:00,
2013-05-10 18:16:00,56.4,51.0,29.88,North,5,4.0,14.0,82,0.00,,OVC021,0.00,VWS V14.01,2013-05-10 23:16:00,
2013-05-10 18:19:00,56.4,51.0,29.88,North,5,11.0,14.0,82,0.00,,OVC021,0.00,VWS V14.01,2013-05-10 23:19:00,
2013-05-10 18:20:00,56.2,50.8,29.88,WNW,295,0.0,14.0,82,0.00,,OVC021,0.00,VWS V14.01,2013-05-10 23:20:00,
2013-05-10 18:22:00,56.2,50.8,29.88,NW,323,5.0,14.0,82,0.00,,OVC021,0.00,VWS V14.01,2013-05-10 23:22:00,
2013-05-10 18:24:00,56.2,51.1,29.88,NW,313,9.0,14.0,83,0.00,,OVC021,0.00,VWS V14.01,2013-05-10 23:24:00,
2013-05-10 18:25:00,56.2,50.8,29.88,North,355,2.0,14.0,82,0.00,,OVC021,0.00,VWS V14.01,2013-05-10 23:25:00,
2013-05-10 18:27:00,56.2,51.1,29.88,NW,323,1.0,14.0,83,0.00,,OVC021,0.00,VWS V14.01,2013-05-10 23:27:00,
2013-05-10 18:29:00,56.2,51.1,29.88,NW,317,1.0,14.0,83,0.00,,OVC021,0.00,VWS V14.01,2013-05-10 23:29:00,
2013-05-10 18:30:00,56.2,51.1,29.88,WNW,289,2.0,14.0,83,0.00,,OVC021,0.00,VWS V14.01,2013-05-10 23:30:00,
2013-05-10 18:32:00,56.1,51.0,29.88,North,355,10.0,11.0,83,0.00,,OVC021,0.00,VWS V14.01,2013-05-10 23:32:00,
2013-05-10 18:34:00,56.1,51.0,29.88,NW,322,9.0,11.0,83,0.00,,OVC021,0.00,VWS V14.01,2013-05-10 23:34:00,
2013-05-10 18:35:00,56.1,51.0,29.88,WNW,302,0.0,11.0,83,0.00,,OVC021,0.00,VWS V14.01,2013-05-10 23:35:00,
2013-05-10 18:37:00,56.1,51.0,29.88,WNW,295,1.0,11.0,83,0.00,,OVC021,0.00,VWS V14.01,2013-05-10 23:37:00,
2013-05-10 18:39:00,56.1,51.0,29.88,NW,325,11.0,11.0,83,0.00,,OVC021,0.00,VWS V14.01,2013-05-10 23:39:00,
2013-05-10 18:40:00,56.1,51.0,29.88,NNW,340,7.0,11.0,83,0.00,,OVC021,0.00,VWS V14.01,2013-05-10 23:40:00,
2013-05-10 18:43:00,56.1,50.7,29.88,NNW,343,4.0,11.0,82,0.00,,OVC021,0.00,VWS V14.01,2013-05-10 23:43:00,
2013-05-10 18:44:00,56.1,50.7,29.88,NW,313,1.0,11.0,82,0.00,,OVC021,0.00,VWS V14.01,2013-05-10 23:44:00,
2013-05-10 18:45:00,56.1,50.7,29.88,NW,312,2.0,11.0,82,0.00,,OVC021,0.00,VWS V14.01,2013-05-10 23:45:00,
2013-05-10 18:46:00,56.1,50.7,29.88,NW,317,0.0,11.0,82,0.00,,OVC021,0.00,VWS V14.01,2013-05-10 23:46:00,
2013-05-10 18:48:00,55.9,50.2,29.88,NNW,338,5.0,16.0,81,0.00,,OVC021,0.00,VWS V14.01,2013-05-10 23:48:00,
2013-05-10 18:49:00,55.9,50.2,29.88,NW,325,2.0,16.0,81,0.00,,OVC021,0.00,VWS V14.01,2013-05-10 23:49:00,
2013-05-10 18:50:00,55.9,50.2,29.88,NW,312,3.0,16.0,81,0.00,,OVC021,0.00,VWS V14.01,2013-05-10 23:50:00,
2013-05-10 18:51:00,55.9,50.2,29.88,WNW,288,3.0,16.0,81,0.00,,OVC021,0.00,VWS V14.01,2013-05-10 23:51:00,
2013-05-10 18:53:00,55.9,50.2,29.88,NW,312,5.0,16.0,81,0.00,,OVC021,0.00,VWS V14.01,2013-05-10 23:53:00,
2013-05-10 18:55:00,55.9,50.2,29.88,NW,319,4.0,16.0,81,0.00,,OVC021,0.00,VWS V14.01,2013-05-10 23:55:00,
2013-05-10 18:56:00,55.9,50.2,29.88,NNW,327,4.0,16.0,81,0.00,,OVC021,0.00,VWS V14.01,2013-05-10 23:56:00,
2013-05-10 18:58:00,55.9,50.2,29.88,WNW,293,3.0,16.0,81,0.00,,OVC021,0.00,VWS V14.01,2013-05-10 23:58:00,
2013-05-10 19:00:00,55.9,50.2,29.89,West,271,0.0,16.0,81,0.00,,OVC021,0.00,VWS V14.01,2013-05-11 00:00:00,
2013-05-10 19:01:00,55.9,50.2,29.89,NW,315,5.0,5.0,81,0.00,,OVC015,0.00,VWS V14.01,2013-05-11 00:01:00,
2013-05-10 19:03:00,55.9,49.8,29.89,NW,317,2.0,11.0,80,0.00,,OVC015,0.00,VWS V14.01,2013-05-11 00:03:00,
2013-05-10 19:05:00,55.9,50.2,29.89,NW,313,3.0,11.0,81,0.00,,OVC015,0.00,VWS V14.01,2013-05-11 00:05:00,
2013-05-10 19:06:00,55.9,49.8,29.89,NNW,338,3.0,11.0,80,0.00,,OVC015,0.00,VWS V14.01,2013-05-11 00:06:00,
2013-05-10 19:08:00,55.9,50.2,29.89,NW,306,5.0,11.0,81,0.00,,OVC015,0.00,VWS V14.01,2013-05-11 00:08:00,
2013-05-10 19:10:00,55.9,50.2,29.89,WNW,296,2.0,11.0,81,0.00,,OVC015,0.00,VWS V14.01,2013-05-11 00:10:00,
2013-05-10 19:11:00,55.9,50.2,29.89,NW,304,0.0,11.0,81,0.00,,OVC015,0.00,VWS V14.01,2013-05-11 00:11:00,
2013-05-10 19:13:00,55.9,50.2,29.89,NNW,342,0.0,11.0,81,0.00,,OVC015,0.00,VWS V14.01,2013-05-11 00:13:00,
2013-05-10 19:15:00,55.9,50.2,29.89,NNW,329,4.0,11.0,81,0.00,,OVC015,0.00,VWS V14.01,2013-05-11 00:15:00,
2013-05-10 19:16:00,55.8,50.1,29.89,NNW,331,4.0,11.0,81,0.00,,OVC015,0.00,VWS V14.01,2013-05-11 00:16:00,
2013-05-10 19:18:00,55.8,50.1,29.89,WNW,296,0.0,11.0,81,0.00,,OVC015,0.00,VWS V14.01,2013-05-11 00:18:00,
2013-05-10 19:20:00,55.8,50.1,29.89,WNW,300,0.0,11.0,81,0.00,,OVC015,0.00,VWS V14.01,2013-05-11 00:20:00,
2013-05-10 19:21:00,55.6,49.9,29.89,NNW,331,1.0,11.0,81,0.00,,OVC015,0.00,VWS V14.01,2013-05-11 00:21:00,
2013-05-10 19:23:00,55.6,49.9,29.89,WNW,296,2.0,11.0,81,0.00,,OVC015,0.00,VWS V14.01,2013-05-11 00:23:00,
2013-05-10 19:25:00,55.6,49.9,29.89,NNW,335,7.0,11.0,81,0.00,,OVC015,0.00,VWS V14.01,2013-05-11 00:25:00,
2013-05-10 19:26:00,55.6,49.9,29.89,NW,304,1.0,11.0,81,0.00,,OVC015,0.00,VWS V14.01,2013-05-11 00:26:00,
2013-05-10 19:27:00,55.6,49.9,29.89,WNW,296,1.0,11.0,81,0.00,,OVC015,0.00,VWS V14.01,2013-05-11 00:27:00,
2013-05-10 19:28:00,55.5,49.8,29.89,NW,321,7.0,11.0,81,0.00,,OVC015,0.00,VWS V14.01,2013-05-11 00:28:00,
2013-05-10 19:30:00,55.5,49.8,29.89,NW,317,0.0,11.0,81,0.00,,OVC015,0.00,VWS V14.01,2013-05-11 00:30:00,
2013-05-10 19:31:00,55.5,49.8,29.89,NNW,348,5.0,5.0,81,0.00,,OVC017,0.00,VWS V14.01,2013-05-11 00:31:00,
2013-05-10 19:32:00,55.5,49.8,29.89,NNW,336,3.0,6.0,81,0.00,,OVC017,0.00,VWS V14.01,2013-05-11 00:32:00,
2013-05-10 19:33:00,55.5,49.8,29.89,NW,306,0.0,7.0,81,0.00,,OVC017,0.00,VWS V14.01,2013-05-11 00:33:00,
2013-05-10 19:35:00,55.5,49.8,29.89,North,9,1.0,7.0,81,0.00,,OVC017,0.00,VWS V14.01,2013-05-11 00:35:00,
2013-05-10 19:36:00,55.3,49.6,29.89,NW,309,0.0,7.0,81,0.00,,OVC017,0.00,VWS V14.01,2013-05-11 00:36:00,
2013-05-10 19:37:00,55.3,49.6,29.89,NW,313,4.0,7.0,81,0.00,,OVC017,0.00,VWS V14.01,2013-05-11 00:37:00,
2013-05-10 19:38:00,55.3,49.6,29.89,NNW,340,4.0,7.0,81,0.00,,OVC017,0.00,VWS V14.01,2013-05-11 00:38:00,
2013-05-10 19:40:00,55.3,49.6,29.89,NW,309,3.0,7.0,81,0.00,,OVC017,0.00,VWS V14.01,2013-05-11 00:40:00,
2013-05-10 19:41:00,55.3,49.6,29.89,NW,313,1.0,7.0,81,0.00,,OVC017,0.00,VWS V14.01,2013-05-11 00:41:00,
2013-05-10 19:42:00,55.3,49.6,29.89,WNW,300,0.0,7.0,81,0.00,,OVC017,0.00,VWS V14.01,2013-05-11 00:42:00,
2013-05-10 19:43:00,55.2,49.5,29.89,NNW,336,5.0,7.0,81,0.00,,OVC017,0.00,VWS V14.01,2013-05-11 00:43:00,
2013-05-10 19:45:00,55.2,49.5,29.90,NW,317,6.0,9.0,81,0.00,,OVC017,0.00,VWS V14.01,2013-05-11 00:45:00,
2013-05-10 19:46:00,55.2,49.5,29.90,NNW,328,5.0,9.0,81,0.00,,OVC017,0.00,VWS V14.01,2013-05-11 00:46:00,
2013-05-10 19:47:00,55.2,49.2,29.90,NNW,327,9.0,9.0,80,0.00,,OVC017,0.00,VWS V14.01,2013-05-11 00:47:00,
2013-05-10 19:49:00,55.2,49.2,29.90,NW,323,3.0,9.0,80,0.00,,OVC017,0.00,VWS V14.01,2013-05-11 00:49:00,
2013-05-10 19:50:00,55.0,49.0,29.90,NW,323,12.0,12.0,80,0.00,,OVC017,0.00,VWS V14.01,2013-05-11 00:50:00,
2013-05-10 19:52:00,55.0,49.0,29.90,WNW,296,1.0,12.0,80,0.00,,OVC017,0.00,VWS V14.01,2013-05-11 00:52:00,
2013-05-10 19:54:00,55.0,49.0,29.90,NW,319,3.0,12.0,80,0.00,,OVC017,0.00,VWS V14.01,2013-05-11 00:54:00,
2013-05-10 19:56:00,55.0,49.0,29.90,NW,315,6.0,12.0,80,0.00,,OVC017,0.00,VWS V14.01,2013-05-11 00:56:00,
2013-05-10 19:57:00,55.0,49.0,29.90,NW,305,0.0,12.0,80,0.00,,OVC017,0.00,VWS V14.01,2013-05-11 00:57:00,
2013-05-10 19:58:00,55.0,49.3,29.90,WNW,300,5.0,12.0,81,0.00,,OVC017,0.00,VWS V14.01,2013-05-11 00:58:00,
2013-05-10 19:59:00,55.0,49.3,29.90,WNW,298,1.0,12.0,81,0.00,,OVC017,0.00,VWS V14.01,2013-05-11 00:59:00,
2013-05-10 20:00:00,55.0,49.3,29.89,North,351,9.0,12.0,81,0.00,,,0.00,VWS V14.01,2013-05-11 01:00:00,
2013-05-10 20:01:00,55.0,49.0,29.89,WNW,286,3.0,8.0,80,0.00,,OVC019,0.00,VWS V14.01,2013-05-11 01:01:00,
2013-05-10 20:02:00,54.9,49.2,29.89,NW,314,1.0,8.0,81,0.00,,OVC019,0.00,VWS V14.01,2013-05-11 01:02:00,
2013-05-10 20:03:00,54.9,49.2,29.89,NW,310,5.0,9.0,81,0.00,,OVC019,0.00,VWS V14.01,2013-05-11 01:03:00,
2013-05-10 20:04:00,54.9,49.2,29.89,NW,325,1.0,9.0,81,0.00,,OVC019,0.00,VWS V14.01,2013-05-11 01:04:00,
2013-05-10 20:06:00,54.9,49.2,29.89,NNW,333,3.0,9.0,81,0.00,,OVC019,0.00,VWS V14.01,2013-05-11 01:06:00,
2013-05-10 20:07:00,54.9,49.2,29.89,NW,318,2.0,9.0,81,0.00,,OVC019,0.00,VWS V14.01,2013-05-11 01:07:00,
2013-05-10 20:08:00,54.9,49.5,29.89,NW,305,0.0,9.0,82,0.00,,OVC019,0.00,VWS V14.01,2013-05-11 01:08:00,
2013-05-10 20:09:00,54.9,49.2,29.89,NNW,343,2.0,10.0,81,0.00,,OVC019,0.00,VWS V14.01,2013-05-11 01:09:00,
2013-05-10 20:11:00,54.9,49.5,29.89,NW,324,5.0,10.0,82,0.00,,OVC019,0.00,VWS V14.01,2013-05-11 01:11:00,
2013-05-10 20:12:00,54.7,49.3,29.89,NW,321,0.0,10.0,82,0.00,,OVC019,0.00,VWS V14.01,2013-05-11 01:12:00,
2013-05-10 20:13:00,54.7,49.3,29.89,NNW,327,3.0,10.0,82,0.00,,OVC019,0.00,VWS V14.01,2013-05-11 01:13:00,
2013-05-10 20:14:00,54.7,49.3,29.89,WNW,284,0.0,10.0,82,0.00,,OVC019,0.00,VWS V14.01,2013-05-11 01:14:00,
2013-05-10 20:16:00,54.7,49.3,29.89,NNW,344,7.0,10.0,82,0.00,,OVC019,0.00,VWS V14.01,2013-05-11 01:16:00,
2013-05-10 20:17:00,54.7,49.3,29.89,NNE,13,3.0,13.0,82,0.00,,OVC019,0.00,VWS V14.01,2013-05-11 01:17:00,
2013-05-10 20:18:00,54.6,49.2,29.89,NW,307,2.0,13.0,82,0.00,,OVC019,0.00,VWS V14.01,2013-05-11 01:18:00,
2013-05-10 20:19:00,54.6,49.2,29.89,NW,304,4.0,13.0,82,0.00,,OVC019,0.00,VWS V14.01,2013-05-11 01:19:00,
2013-05-10 20:20:00,54.6,49.5,29.89,North,355,1.0,13.0,83,0.00,,OVC019,0.00,VWS V14.01,2013-05-11 01:20:00,
2013-05-10 20:21:00,54.6,49.2,29.89,NW,309,3.0,13.0,82,0.00,,OVC019,0.00,VWS V14.01,2013-05-11 01:21:00,
2013-05-10 20:22:00,54.6,49.2,29.89,NNW,344,6.0,15.0,82,0.00,,OVC019,0.00,VWS V14.01,2013-05-11 01:22:00,
2013-05-10 20:23:00,54.6,49.2,29.89,NW,313,8.0,15.0,82,0.00,,OVC019,0.00,VWS V14.01,2013-05-11 01:23:00,
2013-05-10 20:24:00,54.6,49.2,29.89,WNW,292,6.0,15.0,82,0.00,,OVC019,0.00,VWS V14.01,2013-05-11 01:24:00,
2013-05-10 20:25:00,54.4,49.0,29.89,NNW,344,3.0,15.0,82,0.00,,OVC019,0.00,VWS V14.01,2013-05-11 01:25:00,
2013-05-10 20:26:00,54.4,49.3,29.89,NW,306,3.0,15.0,83,0.00,,OVC019,0.00,VWS V14.01,2013-05-11 01:26:00,
2013-05-10 20:28:00,54.3,49.3,29.89,NNW,341,3.0,15.0,83,0.00,,OVC019,0.00,VWS V14.01,2013-05-11 01:28:00,
2013-05-10 20:29:00,54.3,49.3,29.89,North,5,0.0,15.0,83,0.00,,OVC019,0.00,VWS V14.01,2013-05-11 01:29:00,
2013-05-10 20:30:00,54.3,49.6,29.89,NNW,331,0.0,15.0,84,0.00,,OVC019,0.00,VWS V14.01,2013-05-11 01:30:00,
2013-05-10 20:31:00,54.1,49.4,29.89,NNW,331,0.0,0.0,84,0.00,,OVC019,0.00,VWS V14.01,2013-05-11 01:31:00,
2013-05-10 20:33:00,54.1,49.4,29.89,WNW,293,0.0,9.0,84,0.00,,OVC019,0.00,VWS V14.01,2013-05-11 01:33:00,
2013-05-10 20:34:00,54.0,49.3,29.89,WNW,292,0.0,9.0,84,0.00,,OVC019,0.00,VWS V14.01,2013-05-11 01:34:00,
2013-05-10 20:36:00,53.8,49.4,29.89,NNE,30,1.0,9.0,85,0.00,,OVC019,0.00,VWS V14.01,2013-05-11 01:36:00,
2013-05-10 20:38:00,53.7,49.6,29.89,NW,314,1.0,9.0,86,0.00,,OVC019,0.00,VWS V14.01,2013-05-11 01:38:00,
2013-05-10 20:39:00,53.7,49.6,29.89,North,349,1.0,9.0,86,0.00,,OVC019,0.00,VWS V14.01,2013-05-11 01:39:00,
2013-05-10 20:41:00,53.5,49.4,29.89,NW,315,2.0,9.0,86,0.00,,OVC019,0.00,VWS V14.01,2013-05-11 01:41:00,
2013-05-10 20:42:00,53.5,49.4,29.89,WNW,284,5.0,9.0,86,0.00,,OVC019,0.00,VWS V14.01,2013-05-11 01:42:00,
2013-05-10 20:43:00,53.4,49.6,29.89,NW,305,2.0,9.0,87,0.00,,OVC019,0.00,VWS V14.01,2013-05-11 01:43:00,
2013-05-10 20:44:00,53.2,49.4,29.89,NW,306,1.0,9.0,87,0.00,,OVC019,0.00,VWS V14.01,2013-05-11 01:44:00,
2013-05-10 20:46:00,53.2,49.4,29.91,NNW,334,5.0,11.0,87,0.00,,OVC019,0.00,VWS V14.01,2013-05-11 01:46:00,
2013-05-10 20:47:00,53.1,49.3,29.91,NW,314,2.0,11.0,87,0.00,,OVC019,0.00,VWS V14.01,2013-05-11 01:47:00,
2013-05-10 20:48:00,53.1,49.3,29.91,North,355,5.0,11.0,87,0.00,,OVC019,0.00,VWS V14.01,2013-05-11 01:48:00,
2013-05-10 20:49:00,53.1,49.3,29.91,NW,317,5.0,11.0,87,0.00,,OVC019,0.00,VWS V14.01,2013-05-11 01:49:00,
2013-05-10 20:52:00,53.0,49.5,29.91,NNW,335,10.0,14.0,88,0.00,,OVC019,0.00,VWS V14.01,2013-05-11 01:52:00,
2013-05-10 20:53:00,53.0,49.5,29.91,NW,314,8.0,14.0,88,0.00,,OVC019,0.00,VWS V14.01,2013-05-11 01:53:00,
2013-05-10 20:54:00,53.0,49.5,29.91,NNW,348,9.0,14.0,88,0.00,,OVC019,0.00,VWS V14.01,2013-05-11 01:54:00,
2013-05-10 20:55:00,53.0,49.5,29.91,NNW,327,4.0,14.0,88,0.00,,OVC019,0.00,VWS V14.01,2013-05-11 01:55:00,
2013-05-10 20:57:00,52.8,49.3,29.91,WNW,290,5.0,14.0,88,0.00,,OVC019,0.00,VWS V14.01,2013-05-11 01:57:00,
2013-05-10 20:58:00,52.8,49.3,29.91,NW,321,12.0,14.0,88,0.00,,OVC019,0.00,VWS V14.01,2013-05-11 01:58:00,
2013-05-10 21:00:00,52.8,49.3,29.91,NW,304,4.0,14.0,88,0.00,,OVC019,0.00,VWS V14.01,2013-05-11 02:00:00,
2013-05-10 21:02:00,52.8,49.3,29.90,North,5,2.0,7.0,88,0.00,,OVC014,0.00,VWS V14.01,2013-05-11 02:02:00,
2013-05-10 21:10:00,52.8,49.3,29.90,NW,311,6.0,12.0,88,0.00,,OVC014,0.00,VWS V14.01,2013-05-11 02:10:00,
2013-05-10 21:15:00,53.0,49.5,29.91,NW,318,8.0,12.0,88,0.00,,OVC014,0.00,VWS V14.01,2013-05-11 02:15:00,
2013-05-10 21:16:00,53.0,49.5,29.91,NW,324,5.0,12.0,88,0.00,,OVC014,0.00,VWS V14.01,2013-05-11 02:16:00,
2013-05-10 21:20:00,52.8,49.3,29.91,NW,323,5.0,14.0,88,0.00,,OVC014,0.00,VWS V14.01,2013-05-11 02:20:00,
2013-05-10 21:21:00,52.8,49.3,29.91,NW,306,6.0,14.0,88,0.00,,OVC014,0.00,VWS V14.01,2013-05-11 02:21:00,
2013-05-10 21:25:00,53.0,49.5,29.91,NW,312,6.0,14.0,88,0.00,,OVC014,0.00,VWS V14.01,2013-05-11 02:25:00,
2013-05-10 21:26:00,53.0,49.5,29.91,North,355,8.0,14.0,88,0.00,,OVC014,0.00,VWS V14.01,2013-05-11 02:26:00,
2013-05-10 21:30:00,53.0,49.5,29.91,NW,317,0.0,14.0,88,0.00,,OVC014,0.00,VWS V14.01,2013-05-11 02:30:00,
2013-05-10 21:31:00,53.0,49.5,29.91,NW,322,2.0,2.0,88,0.00,,OVC014,0.00,VWS V14.01,2013-05-11 02:31:00,
2013-05-10 21:35:00,53.0,49.2,29.91,NNW,340,2.0,9.0,87,0.00,,OVC014,0.00,VWS V14.01,2013-05-11 02:35:00,
2013-05-10 21:36:00,53.0,49.2,29.91,NW,309,10.0,12.0,87,0.00,,OVC014,0.00,VWS V14.01,2013-05-11 02:36:00,
2013-05-10 21:40:00,52.8,49.0,29.91,WNW,294,2.0,12.0,87,0.00,,OVC014,0.00,VWS V14.01,2013-05-11 02:40:00,
2013-05-10 21:41:00,52.8,49.0,29.91,NW,315,10.0,12.0,87,0.00,,OVC014,0.00,VWS V14.01,2013-05-11 02:41:00,
2013-05-10 21:45:00,52.8,48.7,29.91,NW,321,9.0,12.0,86,0.00,,OVC014,0.00,VWS V14.01,2013-05-11 02:45:00,
2013-05-10 21:46:00,52.8,48.7,29.91,NW,311,10.0,13.0,86,0.00,,OVC014,0.00,VWS V14.01,2013-05-11 02:46:00,
2013-05-10 21:50:00,52.8,48.7,29.91,NW,312,4.0,13.0,86,0.00,,OVC014,0.00,VWS V14.01,2013-05-11 02:50:00,
2013-05-10 21:51:00,52.8,48.7,29.91,NW,312,0.0,13.0,86,0.00,,OVC014,0.00,VWS V14.01,2013-05-11 02:51:00,
2013-05-10 21:52:00,52.8,48.7,29.91,NNW,329,8.0,13.0,86,0.00,,OVC014,0.00,VWS V14.01,2013-05-11 02:52:00,
2013-05-10 21:56:00,52.8,48.7,29.91,NNW,341,0.0,13.0,86,0.00,,OVC014,0.00,VWS V14.01,2013-05-11 02:56:00,
2013-05-10 21:57:00,52.8,48.7,29.91,NW,314,6.0,13.0,86,0.00,,OVC014,0.00,VWS V14.01,2013-05-11 02:57:00,
2013-05-10 22:00:00,52.8,48.7,29.92,NNW,337,0.0,13.0,86,0.00,,,0.00,VWS V14.01,2013-05-11 03:00:00,
2013-05-10 22:01:00,52.8,48.7,29.92,NNW,337,0.0,0.0,86,0.00,,OVC036,0.00,VWS V14.01,2013-05-11 03:01:00,
2013-05-10 22:02:00,52.8,48.7,29.92,NW,324,7.0,7.0,86,0.00,,OVC036,0.00,VWS V14.01,2013-05-11 03:02:00,
2013-05-10 22:06:00,52.7,48.6,29.92,NNW,342,3.0,9.0,86,0.00,,OVC036,0.00,VWS V14.01,2013-05-11 03:06:00,
2013-05-10 22:07:00,52.7,48.6,29.92,WNW,294,0.0,9.0,86,0.00,,OVC036,0.00,VWS V14.01,2013-05-11 03:07:00,
2013-05-10 22:11:00,52.7,48.6,29.92,NNW,329,1.0,9.0,86,0.00,,OVC036,0.00,VWS V14.01,2013-05-11 03:11:00,
2013-05-10 22:12:00,52.7,48.6,29.92,NW,310,0.0,9.0,86,0.00,,OVC036,0.00,VWS V14.01,2013-05-11 03:12:00,
2013-05-10 22:16:00,52.7,48.6,29.92,NW,321,0.0,9.0,86,0.00,,OVC036,0.00,VWS V14.01,2013-05-11 03:16:00,
2013-05-10 22:17:00,52.7,48.6,29.92,NW,316,0.0,9.0,86,0.00,,OVC036,0.00,VWS V14.01,2013-05-11 03:17:00,
2013-05-10 22:21:00,52.7,48.6,29.92,NNW,340,0.0,9.0,86,0.00,,OVC036,0.00,VWS V14.01,2013-05-11 03:21:00,
2013-05-10 22:22:00,52.7,48.6,29.92,NNW,340,0.0,9.0,86,0.00,,OVC036,0.00,VWS V14.01,2013-05-11 03:22:00,
2013-05-10 22:27:00,52.7,48.6,29.92,WNW,300,0.0,9.0,86,0.00,,OVC036,0.00,VWS V14.01,2013-05-11 03:27:00,
2013-05-10 22:28:00,52.7,48.6,29.92,NW,321,1.0,9.0,86,0.00,,OVC036,0.00,VWS V14.01,2013-05-11 03:28:00,
2013-05-10 22:30:00,52.5,48.4,29.92,WNW,301,0.0,9.0,86,0.00,,,0.00,VWS V14.01,2013-05-11 03:30:00,
2013-05-10 22:32:00,52.5,48.4,29.92,NW,326,0.0,2.0,86,0.00,,OVC036,0.00,VWS V14.01,2013-05-11 03:32:00,
2013-05-10 22:33:00,52.5,48.4,29.92,NNW,327,0.0,2.0,86,0.00,,OVC036,0.00,VWS V14.01,2013-05-11 03:33:00,
2013-05-10 22:37:00,52.5,48.4,29.92,NW,311,0.0,6.0,86,0.00,,OVC036,0.00,VWS V14.01,2013-05-11 03:37:00,
2013-05-10 22:38:00,52.5,48.4,29.92,NW,324,4.0,6.0,86,0.00,,OVC036,0.00,VWS V14.01,2013-05-11 03:38:00,
2013-05-10 22:42:00,52.5,48.4,29.92,NW,322,0.0,6.0,86,0.00,,OVC036,0.00,VWS V14.01,2013-05-11 03:42:00,
2013-05-10 22:43:00,52.5,48.4,29.92,NW,326,0.0,6.0,86,0.00,,OVC036,0.00,VWS V14.01,2013-05-11 03:43:00,
2013-05-10 22:47:00,52.5,48.4,29.92,NW,323,0.0,6.0,86,0.00,,OVC036,0.00,VWS V14.01,2013-05-11 03:47:00,
2013-05-10 22:48:00,52.5,48.4,29.92,NW,317,0.0,6.0,86,0.00,,OVC036,0.00,VWS V14.01,2013-05-11 03:48:00,
2013-05-10 22:52:00,52.5,48.4,29.92,NW,323,0.0,6.0,86,0.00,,OVC036,0.00,VWS V14.01,2013-05-11 03:52:00,
2013-05-10 22:53:00,52.5,48.4,29.92,NW,323,0.0,6.0,86,0.00,,OVC036,0.00,VWS V14.01,2013-05-11 03:53:00,
2013-05-10 22:57:00,52.4,48.3,29.92,NNW,333,0.0,6.0,86,0.00,,OVC036,0.00,VWS V14.01,2013-05-11 03:57:00,
2013-05-10 22:58:00,52.4,48.3,29.92,North,350,2.0,6.0,86,0.00,,OVC036,0.00,VWS V14.01,2013-05-11 03:58:00,
2013-05-10 22:59:00,52.4,48.3,29.92,North,350,0.0,6.0,86,0.00,,OVC036,0.00,VWS V14.01,2013-05-11 03:59:00,
2013-05-10 23:00:00,52.4,48.3,29.92,NNW,343,0.0,6.0,86,0.00,,,0.00,VWS V14.01,2013-05-11 04:00:00,
2013-05-10 23:01:00,52.4,48.3,29.92,NNW,338,0.0,0.0,86,0.00,,OVC020,0.00,VWS V14.01,2013-05-11 04:01:00,
2013-05-10 23:06:00,52.4,48.7,29.92,NW,323,3.0,5.0,87,0.00,,OVC020,0.00,VWS V14.01,2013-05-11 04:06:00,
2013-05-10 23:11:00,52.4,48.7,29.92,NW,323,0.0,6.0,87,0.00,,OVC020,0.00,VWS V14.01,2013-05-11 04:11:00,
2013-05-10 23:16:00,52.4,48.7,29.92,NW,319,1.0,6.0,87,0.00,,OVC020,0.00,VWS V14.01,2013-05-11 04:16:00,
2013-05-10 23:21:00,52.4,48.7,29.92,NNW,329,0.0,6.0,87,0.00,,OVC020,0.00,VWS V14.01,2013-05-11 04:21:00,
2013-05-10 23:26:00,52.4,48.7,29.92,NNW,348,2.0,6.0,87,0.00,,OVC020,0.00,VWS V14.01,2013-05-11 04:26:00,
2013-05-10 23:30:00,52.4,48.7,29.93,NW,316,3.0,7.0,87,0.00,,,0.00,VWS V14.01,2013-05-11 04:30:00,
2013-05-10 23:31:00,52.4,48.7,29.93,NW,321,2.0,3.0,87,0.00,,OVC020,0.00,VWS V14.01,2013-05-11 04:31:00,
2013-05-10 23:36:00,52.2,48.5,29.93,WNW,298,0.0,10.0,87,0.00,,OVC020,0.00,VWS V14.01,2013-05-11 04:36:00,
2013-05-10 23:37:00,52.2,48.5,29.93,NW,317,1.0,10.0,87,0.00,,OVC020,0.00,VWS V14.01,2013-05-11 04:37:00,
2013-05-10 23:41:00,52.2,48.5,29.93,NW,319,0.0,10.0,87,0.00,,OVC020,0.00,VWS V14.01,2013-05-11 04:41:00,
2013-05-10 23:42:00,52.2,48.5,29.93,NNW,330,0.0,10.0,87,0.00,,OVC020,0.00,VWS V14.01,2013-05-11 04:42:00,
2013-05-10 23:46:00,52.2,48.5,29.94,NW,325,0.0,10.0,87,0.00,,OVC020,0.00,VWS V14.01,2013-05-11 04:46:00,
2013-05-10 23:47:00,52.2,48.5,29.94,NW,323,0.0,10.0,87,0.00,,OVC020,0.00,VWS V14.01,2013-05-11 04:47:00,
2013-05-10 23:52:00,52.2,48.8,29.94,NW,325,0.0,10.0,88,0.00,,OVC020,0.00,VWS V14.01,2013-05-11 04:52:00,
2013-05-10 23:57:00,52.1,48.7,29.94,NW,325,9.0,10.0,88,0.00,,OVC020,0.00,VWS V14.01,2013-05-11 04:57:00,